Time,TemperatureF,DewpointF,PressureIn,WindDirection,WindDirectionDegrees,WindSpeedMPH,WindSpeedGustMPH,Humidity,HourlyPrecipIn,Conditions,Clouds,dailyrainin,SoftwareType,DateUTC
2013-05-13 00:01:00,48.9,44.3,29.84,SSE,158,0.0,0.0,84,0.00,CLR,,0.00,WeatherDisplay:10.37,2013-05-13 04:01:00,
2013-05-13 00:02:00,48.9,44.3,29.84,SSE,158,0.0,0.0,84,0.00,CLR,,0.00,WeatherDisplay:10.37,2013-05-13 04:02:00,
2013-05-13 00:04:00,48.7,44.1,29.86,SSE,158,0.0,0.0,84,0.00,CLR,,0.00,WeatherDisplay:10.37,2013-05-13 04:04:00,
2013-05-13 00:06:00,48.7,44.1,29.84,SSE,158,0.0,0.0,84,0.00,CLR,,0.00,WeatherDisplay:10.37,2013-05-13 04:06:00,
2013-05-13 00:07:00,48.6,43.9,29.84,SSE,158,0.0,0.0,84,0.00,CLR,,0.00,WeatherDisplay:10.37,2013-05-13 04:07:00,
2013-05-13 00:08:00,48.6,43.9,29.84,SSE,158,0.0,0.0,84,0.00,CLR,,0.00,WeatherDisplay:10.37,2013-05-13 04:08:00,
2013-05-13 00:09:00,48.6,43.9,29.84,SSE,158,0.0,0.0,84,0.00,CLR,,0.00,WeatherDisplay:10.37,2013-05-13 04:09:00,
2013-05-13 00:11:00,48.6,43.9,29.86,SSE,158,0.0,0.0,84,0.00,CLR,,0.00,WeatherDisplay:10.37,2013-05-13 04:11:00,
2013-05-13 00:12:00,48.4,43.8,29.84,SSE,158,0.0,0.0,84,0.00,CLR,,0.00,WeatherDisplay:10.37,2013-05-13 04:12:00,
2013-05-13 00:13:00,48.4,43.8,29.84,SSE,158,0.0,0.0,84,0.00,CLR,,0.00,WeatherDisplay:10.37,2013-05-13 04:13:00,
2013-05-13 00:14:00,48.4,43.8,29.86,SSE,158,0.0,0.0,84,0.00,CLR,,0.00,WeatherDisplay:10.37,2013-05-13 04:14:00,
2013-05-13 00:16:00,48.4,43.8,29.83,SSE,158,0.0,0.0,84,0.00,CLR,,0.00,WeatherDisplay:10.37,2013-05-13 04:16:00,
2013-05-13 00:18:00,48.4,43.8,29.86,SSE,158,0.0,0.0,84,0.00,CLR,,0.00,WeatherDisplay:10.37,2013-05-13 04:18:00,
2013-05-13 00:19:00,48.4,43.8,29.86,SSE,158,0.0,0.0,84,0.00,CLR,,0.00,WeatherDisplay:10.37,2013-05-13 04:19:00,
2013-05-13 00:20:00,48.2,43.6,29.86,SSE,158,0.0,0.0,84,0.00,CLR,,0.00,WeatherDisplay:10.37,2013-05-13 04:20:00,
2013-05-13 00:21:00,48.2,43.6,29.84,SSE,158,0.0,0.0,84,0.00,CLR,,0.00,WeatherDisplay:10.37,2013-05-13 04:21:00,
2013-05-13 00:24:00,48.0,43.4,29.84,SSE,158,0.0,0.0,84,0.00,CLR,,0.00,WeatherDisplay:10.37,2013-05-13 04:24:00,
2013-05-13 00:25:00,48.0,43.4,29.84,SSE,158,0.0,0.0,84,0.00,CLR,,0.00,WeatherDisplay:10.37,2013-05-13 04:25:00,
2013-05-13 00:27:00,48.0,43.4,29.86,SSE,158,0.0,0.0,84,0.00,CLR,,0.00,WeatherDisplay:10.37,2013-05-13 04:27:00,
2013-05-13 00:29:00,48.0,43.4,29.84,SSE,158,0.0,0.0,84,0.00,CLR,,0.00,WeatherDisplay:10.37,2013-05-13 04:29:00,
2013-05-13 00:30:00,48.0,43.4,29.86,SSE,158,0.0,0.0,84,0.00,CLR,,0.00,WeatherDisplay:10.37,2013-05-13 04:30:00,
2013-05-13 00:32:00,48.0,43.7,29.86,SE,135,2.3,2.3,85,0.00,CLR,,0.00,WeatherDisplay:10.37,2013-05-13 04:32:00,
2013-05-13 00:35:00,48.0,43.7,29.84,SE,145,2.0,0.0,85,0.00,CLR,,0.00,WeatherDisplay:10.37,2013-05-13 04:35:00,
2013-05-13 00:36:00,48.0,43.7,29.84,SE,135,2.3,2.3,85,0.00,CLR,,0.00,WeatherDisplay:10.37,2013-05-13 04:36:00,
2013-05-13 00:37:00,48.0,43.7,29.86,SE,135,1.2,1.2,85,0.00,CLR,,0.00,WeatherDisplay:10.37,2013-05-13 04:37:00,
2013-05-13 00:40:00,48.0,43.7,29.83,ESE,112,2.3,2.3,85,0.00,CLR,,0.00,WeatherDisplay:10.37,2013-05-13 04:40:00,
2013-05-13 00:41:00,48.0,43.7,29.83,ESE,112,2.3,2.3,85,0.00,CLR,,0.00,WeatherDisplay:10.37,2013-05-13 04:41:00,
2013-05-13 00:43:00,48.0,43.7,29.86,ESE,112,1.2,1.2,85,0.00,CLR,,0.00,WeatherDisplay:10.37,2013-05-13 04:43:00,
2013-05-13 00:46:00,47.8,43.5,29.83,SE,135,0.0,0.0,85,0.00,CLR,,0.00,WeatherDisplay:10.37,2013-05-13 04:46:00,
2013-05-13 00:47:00,47.8,43.5,29.83,SE,135,0.0,0.0,85,0.00,CLR,,0.00,WeatherDisplay:10.37,2013-05-13 04:47:00,
2013-05-13 00:48:00,47.8,43.5,29.83,SE,135,0.0,1.1,85,0.00,CLR,,0.00,WeatherDisplay:10.37,2013-05-13 04:48:00,
2013-05-13 00:50:00,47.8,43.5,29.83,SE,135,0.0,0.0,85,0.00,CLR,,0.00,WeatherDisplay:10.37,2013-05-13 04:50:00,
2013-05-13 00:51:00,47.8,43.5,29.83,SE,135,0.0,0.0,85,0.00,CLR,,0.00,WeatherDisplay:10.37,2013-05-13 04:51:00,
2013-05-13 00:52:00,47.8,43.5,29.83,SE,135,1.2,1.2,85,0.00,CLR,,0.00,WeatherDisplay:10.37,2013-05-13 04:52:00,
2013-05-13 00:53:00,47.8,43.5,29.83,SE,135,1.2,1.2,85,0.00,CLR,,0.00,WeatherDisplay:10.37,2013-05-13 04:53:00,
2013-05-13 00:54:00,47.8,43.5,29.83,SE,135,1.2,1.2,85,0.00,CLR,,0.00,WeatherDisplay:10.37,2013-05-13 04:54:00,
2013-05-13 00:55:00,47.8,43.5,29.83,SE,135,0.0,0.0,85,0.00,CLR,,0.00,WeatherDisplay:10.37,2013-05-13 04:55:00,
2013-05-13 00:56:00,47.8,43.5,29.83,ESE,112,0.0,0.0,85,0.00,CLR,,0.00,WeatherDisplay:10.37,2013-05-13 04:56:00,
2013-05-13 00:59:00,47.8,43.5,29.83,ESE,112,1.3,1.3,85,0.00,CLR,,0.00,WeatherDisplay:10.37,2013-05-13 04:59:00,
2013-05-13 01:01:00,47.8,43.2,29.83,SE,135,0.0,0.0,84,0.00,CLR,,0.00,WeatherDisplay:10.37,2013-05-13 05:01:00,
2013-05-13 01:02:00,47.8,43.2,29.83,SE,135,0.0,0.0,84,0.00,CLR,,0.00,WeatherDisplay:10.37,2013-05-13 05:02:00,
2013-05-13 01:04:00,47.8,43.2,29.83,SE,135,0.0,0.0,84,0.00,CLR,,0.00,WeatherDisplay:10.37,2013-05-13 05:04:00,
2013-05-13 01:05:00,47.8,43.2,29.83,SE,125,0.0,0.0,84,0.00,CLR,,0.00,WeatherDisplay:10.37,2013-05-13 05:05:00,
2013-05-13 01:07:00,47.8,43.2,29.83,SE,135,0.0,0.0,84,0.00,CLR,,0.00,WeatherDisplay:10.37,2013-05-13 05:07:00,
2013-05-13 01:09:00,47.5,42.9,29.83,SE,135,0.0,0.0,84,0.00,CLR,,0.00,WeatherDisplay:10.37,2013-05-13 05:09:00,
2013-05-13 01:10:00,47.5,42.9,29.83,SE,135,0.0,0.0,84,0.00,CLR,,0.00,WeatherDisplay:10.37,2013-05-13 05:10:00,
2013-05-13 01:11:00,47.5,42.9,29.83,SE,135,0.0,0.0,84,0.00,CLR,,0.00,WeatherDisplay:10.37,2013-05-13 05:11:00,
2013-05-13 01:12:00,47.5,42.9,29.83,SE,135,0.0,0.0,84,0.00,CLR,,0.00,WeatherDisplay:10.37,2013-05-13 05:12:00,
2013-05-13 01:14:00,47.3,42.7,29.83,SE,135,0.0,0.0,84,0.00,CLR,,0.00,WeatherDisplay:10.37,2013-05-13 05:14:00,
2013-05-13 01:16:00,47.1,42.8,29.83,SE,135,0.0,0.0,85,0.00,CLR,,0.00,WeatherDisplay:10.37,2013-05-13 05:16:00,
2013-05-13 01:17:00,47.1,42.8,29.86,SE,135,0.0,0.0,85,0.00,CLR,,0.00,WeatherDisplay:10.37,2013-05-13 05:17:00,
2013-05-13 01:18:00,47.1,42.5,29.83,SE,135,0.0,0.0,84,0.00,CLR,,0.00,WeatherDisplay:10.37,2013-05-13 05:18:00,
2013-05-13 01:20:00,46.9,42.4,29.83,SE,135,0.0,0.0,84,0.00,CLR,,0.00,WeatherDisplay:10.37,2013-05-13 05:20:00,
2013-05-13 01:21:00,46.9,42.4,29.83,SE,135,0.0,0.0,84,0.00,CLR,,0.00,WeatherDisplay:10.37,2013-05-13 05:21:00,
2013-05-13 01:23:00,46.9,42.7,29.83,SE,135,0.0,0.0,85,0.00,CLR,,0.00,WeatherDisplay:10.37,2013-05-13 05:23:00,
2013-05-13 01:24:00,46.9,42.7,29.83,SE,135,0.0,0.0,85,0.00,CLR,,0.00,WeatherDisplay:10.37,2013-05-13 05:24:00,
2013-05-13 01:25:00,46.9,42.7,29.83,SE,135,0.0,0.0,85,0.00,CLR,,0.00,WeatherDisplay:10.37,2013-05-13 05:25:00,
2013-05-13 01:26:00,46.9,42.7,29.83,SE,135,0.0,0.0,85,0.00,CLR,,0.00,WeatherDisplay:10.37,2013-05-13 05:26:00,
2013-05-13 01:27:00,46.9,42.7,29.83,ESE,112,0.0,0.0,85,0.00,CLR,,0.00,WeatherDisplay:10.37,2013-05-13 05:27:00,
2013-05-13 01:29:00,46.8,42.5,29.83,ESE,112,0.0,0.0,85,0.00,CLR,,0.00,WeatherDisplay:10.37,2013-05-13 05:29:00,
2013-05-13 01:30:00,46.8,42.5,29.83,ESE,112,0.0,0.0,85,0.00,CLR,,0.00,WeatherDisplay:10.37,2013-05-13 05:30:00,
2013-05-13 01:31:00,46.8,42.5,29.83,ESE,112,0.0,0.0,85,0.00,CLR,,0.00,WeatherDisplay:10.37,2013-05-13 05:31:00,
2013-05-13 01:33:00,46.6,42.3,29.83,ESE,112,0.0,0.0,85,0.00,CLR,,0.00,WeatherDisplay:10.37,2013-05-13 05:33:00,
2013-05-13 01:35:00,46.6,42.3,29.83,ESE,112,0.0,0.0,85,0.00,CLR,,0.00,WeatherDisplay:10.37,2013-05-13 05:35:00,
2013-05-13 01:36:00,46.6,42.3,29.83,ESE,112,0.0,0.0,85,0.00,CLR,,0.00,WeatherDisplay:10.37,2013-05-13 05:36:00,
2013-05-13 01:39:00,46.6,42.3,29.83,ESE,112,0.0,0.0,85,0.00,CLR,,0.00,WeatherDisplay:10.37,2013-05-13 05:39:00,
2013-05-13 01:40:00,46.6,42.3,29.83,ESE,112,2.3,2.3,85,0.00,CLR,,0.00,WeatherDisplay:10.37,2013-05-13 05:40:00,
2013-05-13 01:41:00,46.6,42.3,29.83,ESE,112,2.3,2.3,85,0.00,CLR,,0.00,WeatherDisplay:10.37,2013-05-13 05:41:00,
2013-05-13 01:42:00,46.6,42.3,29.83,SE,135,2.3,0.0,85,0.00,CLR,,0.00,WeatherDisplay:10.37,2013-05-13 05:42:00,
2013-05-13 01:45:00,46.4,42.1,29.83,SE,135,0.0,0.0,85,0.00,CLR,,0.00,WeatherDisplay:10.37,2013-05-13 05:45:00,
2013-05-13 01:46:00,46.4,42.4,29.83,SE,135,0.0,0.0,86,0.00,CLR,,0.00,WeatherDisplay:10.37,2013-05-13 05:46:00,
2013-05-13 01:47:00,46.4,42.4,29.83,SE,135,0.0,0.0,86,0.00,CLR,,0.00,WeatherDisplay:10.37,2013-05-13 05:47:00,
2013-05-13 01:50:00,46.2,42.3,29.83,ESE,112,0.0,0.0,86,0.00,CLR,,0.00,WeatherDisplay:10.37,2013-05-13 05:50:00,
2013-05-13 01:51:00,46.2,42.3,29.83,ESE,112,0.0,0.0,86,0.00,CLR,,0.00,WeatherDisplay:10.37,2013-05-13 05:51:00,
2013-05-13 01:52:00,46.2,42.3,29.83,ESE,112,0.0,0.0,86,0.00,CLR,,0.00,WeatherDisplay:10.37,2013-05-13 05:52:00,
2013-05-13 01:55:00,46.2,42.3,29.83,ESE,112,0.0,0.0,86,0.00,CLR,,0.00,WeatherDisplay:10.37,2013-05-13 05:55:00,
2013-05-13 01:56:00,46.2,42.3,29.83,ESE,112,0.0,0.0,86,0.00,CLR,,0.00,WeatherDisplay:10.37,2013-05-13 05:56:00,
2013-05-13 01:57:00,46.2,42.3,29.83,ESE,112,0.0,0.0,86,0.00,CLR,,0.00,WeatherDisplay:10.37,2013-05-13 05:57:00,
2013-05-13 01:58:00,46.2,42.3,29.83,ESE,112,0.0,0.0,86,0.00,CLR,,0.00,WeatherDisplay:10.37,2013-05-13 05:58:00,
2013-05-13 02:00:00,46.2,42.3,29.83,ESE,112,2.3,2.3,86,0.00,CLR,,0.00,WeatherDisplay:10.37,2013-05-13 06:00:00,
2013-05-13 02:02:00,46.2,42.3,29.83,ESE,112,2.3,2.3,86,0.00,CLR,,0.00,WeatherDisplay:10.37,2013-05-13 06:02:00,
2013-05-13 02:03:00,46.2,42.3,29.83,ESE,112,2.3,2.3,86,0.00,CLR,,0.00,WeatherDisplay:10.37,2013-05-13 06:03:00,
2013-05-13 02:05:00,46.2,42.3,29.83,ESE,112,2.3,2.3,86,0.00,CLR,,0.00,WeatherDisplay:10.37,2013-05-13 06:05:00,
2013-05-13 02:06:00,46.2,42.3,29.83,ESE,112,2.3,2.3,86,0.00,CLR,,0.00,WeatherDisplay:10.37,2013-05-13 06:06:00,
2013-05-13 02:07:00,46.2,42.3,29.83,ESE,112,2.3,2.3,86,0.00,CLR,,0.00,WeatherDisplay:10.37,2013-05-13 06:07:00,
2013-05-13 02:09:00,46.0,42.1,29.83,ESE,112,2.3,2.5,86,0.00,CLR,,0.00,WeatherDisplay:10.37,2013-05-13 06:09:00,
2013-05-13 02:10:00,46.0,42.1,29.82,ESE,112,0.0,0.0,86,0.00,CLR,,0.00,WeatherDisplay:10.37,2013-05-13 06:10:00,
2013-05-13 02:11:00,46.0,42.1,29.82,ESE,112,0.0,0.0,86,0.00,CLR,,0.00,WeatherDisplay:10.37,2013-05-13 06:11:00,
2013-05-13 02:12:00,46.0,42.1,29.82,ESE,112,0.0,0.0,86,0.00,CLR,,0.00,WeatherDisplay:10.37,2013-05-13 06:12:00,
2013-05-13 02:13:00,46.0,42.1,29.82,ESE,112,0.0,0.0,86,0.00,CLR,,0.00,WeatherDisplay:10.37,2013-05-13 06:13:00,
2013-05-13 02:14:00,46.0,42.1,29.83,ESE,112,0.4,0.4,86,0.00,CLR,,0.00,WeatherDisplay:10.37,2013-05-13 06:14:00,
2013-05-13 02:16:00,46.0,42.1,29.82,ESE,112,0.0,0.0,86,0.00,CLR,,0.00,WeatherDisplay:10.37,2013-05-13 06:16:00,
2013-05-13 02:17:00,46.0,42.1,29.82,ESE,112,0.0,0.0,86,0.00,CLR,,0.00,WeatherDisplay:10.37,2013-05-13 06:17:00,
2013-05-13 02:19:00,46.0,42.1,29.82,ESE,112,0.0,0.0,86,0.00,CLR,,0.00,WeatherDisplay:10.37,2013-05-13 06:19:00,
2013-05-13 02:20:00,46.0,42.1,29.82,ESE,112,0.0,0.0,86,0.00,CLR,,0.00,WeatherDisplay:10.37,2013-05-13 06:20:00,
2013-05-13 02:21:00,46.0,42.4,29.82,ESE,112,1.2,1.2,87,0.00,CLR,,0.00,WeatherDisplay:10.37,2013-05-13 06:21:00,
2013-05-13 02:22:00,46.0,42.4,29.82,ESE,112,1.2,1.2,87,0.00,CLR,,0.00,WeatherDisplay:10.37,2013-05-13 06:22:00,
2013-05-13 02:24:00,45.9,42.2,29.82,ESE,112,1.2,1.3,87,0.00,CLR,,0.00,WeatherDisplay:10.37,2013-05-13 06:24:00,
2013-05-13 02:25:00,45.9,42.2,29.82,ESE,112,2.3,2.3,87,0.00,CLR,,0.00,WeatherDisplay:10.37,2013-05-13 06:25:00,
2013-05-13 02:27:00,45.7,42.0,29.83,ESE,112,0.0,0.0,87,0.00,CLR,,0.00,WeatherDisplay:10.37,2013-05-13 06:27:00,
2013-05-13 02:29:00,45.7,42.0,29.82,ESE,112,0.0,0.0,87,0.00,CLR,,0.00,WeatherDisplay:10.37,2013-05-13 06:29:00,
2013-05-13 02:31:00,45.7,42.0,29.82,ESE,112,1.1,1.1,87,0.00,CLR,,0.00,WeatherDisplay:10.37,2013-05-13 06:31:00,
2013-05-13 02:32:00,45.7,42.0,29.82,ESE,112,1.2,1.2,87,0.00,CLR,,0.00,WeatherDisplay:10.37,2013-05-13 06:32:00,
2013-05-13 02:33:00,45.7,42.0,29.83,ESE,112,1.2,1.2,87,0.00,CLR,,0.00,WeatherDisplay:10.37,2013-05-13 06:33:00,
2013-05-13 02:34:00,45.7,42.0,29.83,ESE,112,0.0,0.0,87,0.00,CLR,,0.00,WeatherDisplay:10.37,2013-05-13 06:34:00,
2013-05-13 02:36:00,45.7,42.0,29.83,ESE,112,0.0,0.0,87,0.00,CLR,,0.00,WeatherDisplay:10.37,2013-05-13 06:36:00,
2013-05-13 02:37:00,45.7,42.0,29.83,ESE,112,0.0,0.0,87,0.00,CLR,,0.00,WeatherDisplay:10.37,2013-05-13 06:37:00,
2013-05-13 02:38:00,45.7,42.0,29.83,ESE,112,1.3,1.3,87,0.00,CLR,,0.00,WeatherDisplay:10.37,2013-05-13 06:38:00,
2013-05-13 02:39:00,45.7,42.0,29.83,ESE,112,1.2,1.3,87,0.00,CLR,,0.00,WeatherDisplay:10.37,2013-05-13 06:39:00,
2013-05-13 02:41:00,45.7,42.0,29.83,ESE,112,2.3,2.3,87,0.00,CLR,,0.00,WeatherDisplay:10.37,2013-05-13 06:41:00,
2013-05-13 02:42:00,45.7,42.0,29.83,ESE,112,1.2,1.2,87,0.00,CLR,,0.00,WeatherDisplay:10.37,2013-05-13 06:42:00,
2013-05-13 02:44:00,45.7,42.0,29.83,ESE,112,0.0,0.0,87,0.00,CLR,,0.00,WeatherDisplay:10.37,2013-05-13 06:44:00,
2013-05-13 02:47:00,45.7,42.0,29.82,ESE,112,2.3,2.3,87,0.00,CLR,,0.00,WeatherDisplay:10.37,2013-05-13 06:47:00,
2013-05-13 02:48:00,45.7,42.0,29.82,ESE,112,2.3,2.3,87,0.00,CLR,,0.00,WeatherDisplay:10.37,2013-05-13 06:48:00,
2013-05-13 02:49:00,45.7,42.0,29.82,ESE,112,0.0,0.0,87,0.00,CLR,,0.00,WeatherDisplay:10.37,2013-05-13 06:49:00,
2013-05-13 02:52:00,45.7,42.0,29.82,ESE,112,2.3,2.3,87,0.00,CLR,,0.00,WeatherDisplay:10.37,2013-05-13 06:52:00,
2013-05-13 02:53:00,45.5,41.9,29.82,ESE,112,2.3,2.3,87,0.00,CLR,,0.00,WeatherDisplay:10.37,2013-05-13 06:53:00,
2013-05-13 02:57:00,45.5,41.9,29.82,ESE,112,1.2,1.2,87,0.00,CLR,,0.00,WeatherDisplay:10.37,2013-05-13 06:57:00,
2013-05-13 02:58:00,45.5,41.9,29.82,ESE,112,1.2,1.2,87,0.00,CLR,,0.00,WeatherDisplay:10.37,2013-05-13 06:58:00,
2013-05-13 02:59:00,45.5,41.9,29.82,ESE,112,1.2,1.2,87,0.00,CLR,,0.00,WeatherDisplay:10.37,2013-05-13 06:59:00,
2013-05-13 03:04:00,45.7,42.0,29.82,ESE,112,0.0,0.0,87,0.00,CLR,,0.00,WeatherDisplay:10.37,2013-05-13 07:04:00,
2013-05-13 03:05:00,45.7,42.0,29.82,ESE,112,0.0,0.0,87,0.00,CLR,,0.00,WeatherDisplay:10.37,2013-05-13 07:05:00,
2013-05-13 03:06:00,45.7,42.0,29.82,ESE,112,1.2,1.2,87,0.00,CLR,,0.00,WeatherDisplay:10.37,2013-05-13 07:06:00,
2013-05-13 03:09:00,45.5,41.9,29.82,ESE,112,0.0,0.4,87,0.00,CLR,,0.00,WeatherDisplay:10.37,2013-05-13 07:09:00,
2013-05-13 03:10:00,45.5,41.9,29.82,ESE,112,0.0,0.0,87,0.00,CLR,,0.00,WeatherDisplay:10.37,2013-05-13 07:10:00,
2013-05-13 03:11:00,45.5,41.9,29.82,ESE,112,0.0,0.0,87,0.00,CLR,,0.00,WeatherDisplay:10.37,2013-05-13 07:11:00,
2013-05-13 03:14:00,45.7,42.0,29.82,ESE,112,0.0,0.0,87,0.00,CLR,,0.00,WeatherDisplay:10.37,2013-05-13 07:14:00,
2013-05-13 03:15:00,45.7,42.0,29.82,ESE,112,0.0,0.0,87,0.00,CLR,,0.00,WeatherDisplay:10.37,2013-05-13 07:15:00,
2013-05-13 03:16:00,45.7,42.0,29.82,ESE,112,0.0,0.0,87,0.00,CLR,,0.00,WeatherDisplay:10.37,2013-05-13 07:16:00,
2013-05-13 03:18:00,45.7,42.3,29.82,SE,135,2.7,2.7,88,0.00,CLR,,0.00,WeatherDisplay:10.37,2013-05-13 07:18:00,
2013-05-13 03:20:00,45.7,42.3,29.82,SE,135,2.3,2.7,88,0.00,CLR,,0.00,WeatherDisplay:10.37,2013-05-13 07:20:00,
2013-05-13 03:21:00,45.7,42.3,29.82,ESE,112,0.0,0.0,88,0.00,CLR,,0.00,WeatherDisplay:10.37,2013-05-13 07:21:00,
2013-05-13 03:22:00,45.7,42.3,29.82,ESE,112,0.0,0.0,88,0.00,CLR,,0.00,WeatherDisplay:10.37,2013-05-13 07:22:00,
2013-05-13 03:24:00,45.7,42.3,29.82,ESE,112,0.0,0.0,88,0.00,CLR,,0.00,WeatherDisplay:10.37,2013-05-13 07:24:00,
2013-05-13 03:26:00,45.7,42.3,29.82,ESE,112,0.0,0.0,88,0.00,CLR,,0.00,WeatherDisplay:10.37,2013-05-13 07:26:00,
2013-05-13 03:27:00,45.7,42.3,29.82,ESE,112,0.0,0.0,88,0.00,CLR,,0.00,WeatherDisplay:10.37,2013-05-13 07:27:00,
2013-05-13 03:28:00,45.7,42.0,29.82,ESE,112,0.0,0.0,87,0.00,CLR,,0.00,WeatherDisplay:10.37,2013-05-13 07:28:00,
2013-05-13 03:29:00,45.7,42.0,29.83,ESE,112,0.0,0.0,87,0.00,CLR,,0.00,WeatherDisplay:10.37,2013-05-13 07:29:00,
2013-05-13 03:31:00,45.7,42.0,29.82,ESE,112,0.0,0.0,87,0.00,CLR,,0.00,WeatherDisplay:10.37,2013-05-13 07:31:00,
2013-05-13 03:32:00,45.7,42.0,29.82,ESE,112,0.0,0.0,87,0.00,CLR,,0.00,WeatherDisplay:10.37,2013-05-13 07:32:00,
2013-05-13 03:33:00,45.7,42.0,29.82,ESE,112,0.0,0.0,87,0.00,CLR,,0.00,WeatherDisplay:10.37,2013-05-13 07:33:00,
2013-05-13 03:35:00,45.5,41.9,29.82,ESE,112,0.0,0.0,87,0.00,CLR,,0.00,WeatherDisplay:10.37,2013-05-13 07:35:00,
2013-05-13 03:36:00,45.5,41.9,29.82,ESE,112,0.0,0.0,87,0.00,CLR,,0.00,WeatherDisplay:10.37,2013-05-13 07:36:00,
2013-05-13 03:37:00,45.5,41.9,29.82,ESE,112,0.0,0.0,87,0.00,CLR,,0.00,WeatherDisplay:10.37,2013-05-13 07:37:00,
2013-05-13 03:39:00,45.3,41.7,29.82,ESE,112,0.0,0.0,87,0.00,CLR,,0.00,WeatherDisplay:10.37,2013-05-13 07:39:00,
2013-05-13 03:41:00,45.3,41.7,29.82,ESE,112,0.0,0.0,87,0.00,CLR,,0.00,WeatherDisplay:10.37,2013-05-13 07:41:00,
2013-05-13 03:44:00,45.3,41.7,29.82,ESE,112,0.0,0.0,87,0.00,CLR,,0.00,WeatherDisplay:10.37,2013-05-13 07:44:00,
2013-05-13 03:47:00,45.1,41.5,29.82,ESE,112,0.0,0.0,87,0.00,CLR,,0.00,WeatherDisplay:10.37,2013-05-13 07:47:00,
2013-05-13 03:48:00,45.1,41.5,29.82,ESE,112,0.0,0.0,87,0.00,CLR,,0.00,WeatherDisplay:10.37,2013-05-13 07:48:00,
2013-05-13 03:49:00,45.0,41.3,29.82,ESE,112,0.0,0.0,87,0.00,CLR,,0.00,WeatherDisplay:10.37,2013-05-13 07:49:00,
2013-05-13 03:50:00,45.0,41.3,29.82,ESE,112,0.0,0.0,87,0.00,CLR,,0.00,WeatherDisplay:10.37,2013-05-13 07:50:00,
2013-05-13 03:52:00,45.0,41.3,29.82,ESE,112,0.0,0.0,87,0.00,CLR,,0.00,WeatherDisplay:10.37,2013-05-13 07:52:00,
2013-05-13 03:53:00,45.0,41.3,29.82,ESE,112,0.0,0.0,87,0.00,CLR,,0.00,WeatherDisplay:10.37,2013-05-13 07:53:00,
2013-05-13 03:55:00,45.0,41.3,29.82,ESE,112,0.0,0.0,87,0.00,CLR,,0.00,WeatherDisplay:10.37,2013-05-13 07:55:00,
2013-05-13 03:57:00,44.8,41.1,29.82,ESE,112,0.0,0.0,87,0.00,CLR,,0.00,WeatherDisplay:10.37,2013-05-13 07:57:00,
2013-05-13 03:58:00,44.8,41.1,29.82,ESE,112,0.0,0.0,87,0.00,CLR,,0.00,WeatherDisplay:10.37,2013-05-13 07:58:00,
2013-05-13 04:00:00,45.0,41.6,29.82,ESE,112,2.7,2.7,88,0.00,CLR,,0.00,WeatherDisplay:10.37,2013-05-13 08:00:00,
2013-05-13 04:01:00,45.0,41.6,29.82,ESE,112,2.3,2.7,88,0.00,CLR,,0.00,WeatherDisplay:10.37,2013-05-13 08:01:00,
2013-05-13 04:02:00,45.0,41.6,29.82,ESE,112,0.0,0.0,88,0.00,CLR,,0.00,WeatherDisplay:10.37,2013-05-13 08:02:00,
2013-05-13 04:05:00,45.3,42.0,29.82,ESE,116,0.0,0.0,88,0.00,CLR,,0.00,WeatherDisplay:10.37,2013-05-13 08:05:00,
2013-05-13 04:06:00,45.5,42.2,29.82,SE,135,0.0,0.0,88,0.00,CLR,,0.00,WeatherDisplay:10.37,2013-05-13 08:06:00,
2013-05-13 04:07:00,45.5,42.2,29.82,SE,135,0.0,0.0,88,0.00,CLR,,0.00,WeatherDisplay:10.37,2013-05-13 08:07:00,
2013-05-13 04:09:00,45.7,42.3,29.82,ESE,112,1.2,1.2,88,0.00,CLR,,0.00,WeatherDisplay:10.37,2013-05-13 08:09:00,
2013-05-13 04:10:00,45.7,42.3,29.82,ESE,112,1.2,1.2,88,0.00,CLR,,0.00,WeatherDisplay:10.37,2013-05-13 08:10:00,
2013-05-13 04:11:00,45.7,42.3,29.82,ESE,112,1.6,1.6,88,0.00,CLR,,0.00,WeatherDisplay:10.37,2013-05-13 08:11:00,
2013-05-13 04:12:00,45.7,42.3,29.82,ESE,112,1.2,1.6,88,0.00,CLR,,0.00,WeatherDisplay:10.37,2013-05-13 08:12:00,
2013-05-13 04:15:00,46.0,42.7,29.82,ESE,112,2.3,2.3,88,0.00,CLR,,0.00,WeatherDisplay:10.37,2013-05-13 08:15:00,
2013-05-13 04:16:00,46.0,42.7,29.82,ESE,112,2.3,2.3,88,0.00,CLR,,0.00,WeatherDisplay:10.37,2013-05-13 08:16:00,
2013-05-13 04:17:00,46.0,42.7,29.82,ESE,112,0.0,0.0,88,0.00,CLR,,0.00,WeatherDisplay:10.37,2013-05-13 08:17:00,
2013-05-13 04:18:00,46.0,42.7,29.82,ESE,112,2.5,2.5,88,0.00,CLR,,0.00,WeatherDisplay:10.37,2013-05-13 08:18:00,
2013-05-13 04:21:00,46.0,42.7,29.82,ESE,112,2.3,2.5,88,0.00,CLR,,0.00,WeatherDisplay:10.37,2013-05-13 08:21:00,
2013-05-13 04:22:00,46.0,42.7,29.82,ESE,112,2.5,2.5,88,0.00,CLR,,0.00,WeatherDisplay:10.37,2013-05-13 08:22:00,
2013-05-13 04:23:00,46.0,42.7,29.82,ESE,112,2.5,2.5,88,0.00,CLR,,0.00,WeatherDisplay:10.37,2013-05-13 08:23:00,
2013-05-13 04:24:00,46.0,42.7,29.82,ESE,112,2.7,2.7,88,0.00,CLR,,0.00,WeatherDisplay:10.37,2013-05-13 08:24:00,
2013-05-13 04:26:00,46.0,42.7,29.82,ESE,112,1.2,1.2,88,0.00,CLR,,0.00,WeatherDisplay:10.37,2013-05-13 08:26:00,
2013-05-13 04:27:00,46.0,42.7,29.82,ESE,112,1.2,1.2,88,0.00,CLR,,0.00,WeatherDisplay:10.37,2013-05-13 08:27:00,
2013-05-13 04:28:00,46.0,42.7,29.82,ESE,112,2.0,2.0,88,0.00,CLR,,0.00,WeatherDisplay:10.37,2013-05-13 08:28:00,
2013-05-13 04:29:00,46.0,42.7,29.82,ESE,112,2.3,2.3,88,0.00,CLR,,0.00,WeatherDisplay:10.37,2013-05-13 08:29:00,
2013-05-13 04:30:00,46.0,42.7,29.82,ESE,112,2.3,2.3,88,0.00,CLR,,0.00,WeatherDisplay:10.37,2013-05-13 08:30:00,
2013-05-13 04:32:00,46.0,42.7,29.82,ESE,112,0.0,0.0,88,0.00,CLR,,0.00,WeatherDisplay:10.37,2013-05-13 08:32:00,
2013-05-13 04:33:00,46.0,42.7,29.82,ESE,112,0.0,0.0,88,0.00,CLR,,0.00,WeatherDisplay:10.37,2013-05-13 08:33:00,
2013-05-13 04:34:00,46.0,42.7,29.82,ESE,112,0.0,0.0,88,0.00,CLR,,0.00,WeatherDisplay:10.37,2013-05-13 08:34:00,
2013-05-13 04:35:00,46.0,42.7,29.82,ESE,112,0.0,0.0,88,0.00,CLR,,0.00,WeatherDisplay:10.37,2013-05-13 08:35:00,
2013-05-13 04:37:00,46.0,42.7,29.81,ESE,112,0.0,0.0,88,0.00,CLR,,0.00,WeatherDisplay:10.37,2013-05-13 08:37:00,
2013-05-13 04:38:00,45.9,42.5,29.81,ESE,112,0.0,0.0,88,0.00,CLR,,0.00,WeatherDisplay:10.37,2013-05-13 08:38:00,
2013-05-13 04:39:00,45.9,42.5,29.81,ESE,112,0.0,0.0,88,0.00,CLR,,0.00,WeatherDisplay:10.37,2013-05-13 08:39:00,
2013-05-13 04:40:00,45.9,42.5,29.81,ESE,112,0.0,0.0,88,0.00,CLR,,0.00,WeatherDisplay:10.37,2013-05-13 08:40:00,
2013-05-13 04:42:00,45.9,42.5,29.82,ESE,112,0.0,0.0,88,0.00,CLR,,0.00,WeatherDisplay:10.37,2013-05-13 08:42:00,
2013-05-13 04:44:00,45.7,42.3,29.82,ESE,112,1.2,1.2,88,0.00,CLR,,0.00,WeatherDisplay:10.37,2013-05-13 08:44:00,
2013-05-13 04:46:00,45.7,42.3,29.82,ESE,112,1.2,1.2,88,0.00,CLR,,0.00,WeatherDisplay:10.37,2013-05-13 08:46:00,
2013-05-13 04:48:00,45.5,42.2,29.82,ESE,112,2.3,2.5,88,0.00,CLR,,0.00,WeatherDisplay:10.37,2013-05-13 08:48:00,
2013-05-13 04:49:00,45.5,42.2,29.82,ESE,112,2.5,2.5,88,0.00,CLR,,0.00,WeatherDisplay:10.37,2013-05-13 08:49:00,
2013-05-13 04:50:00,45.7,42.3,29.82,ESE,112,2.3,2.3,88,0.00,CLR,,0.00,WeatherDisplay:10.37,2013-05-13 08:50:00,
2013-05-13 04:51:00,45.7,42.3,29.82,ESE,112,2.3,2.3,88,0.00,CLR,,0.00,WeatherDisplay:10.37,2013-05-13 08:51:00,
2013-05-13 04:52:00,45.7,42.3,29.82,ESE,112,1.6,1.6,88,0.00,CLR,,0.00,WeatherDisplay:10.37,2013-05-13 08:52:00,
2013-05-13 04:53:00,45.7,42.3,29.82,ESE,112,1.6,1.6,88,0.00,CLR,,0.00,WeatherDisplay:10.37,2013-05-13 08:53:00,
2013-05-13 04:54:00,45.7,42.3,29.82,ESE,112,1.2,1.2,88,0.00,CLR,,0.00,WeatherDisplay:10.37,2013-05-13 08:54:00,
2013-05-13 04:56:00,45.7,42.3,29.82,ESE,112,1.2,1.2,88,0.00,CLR,,0.00,WeatherDisplay:10.37,2013-05-13 08:56:00,
2013-05-13 04:57:00,45.7,42.3,29.82,ESE,112,1.2,1.2,88,0.00,CLR,,0.00,WeatherDisplay:10.37,2013-05-13 08:57:00,
2013-05-13 04:58:00,45.5,42.2,29.82,ESE,112,1.3,1.3,88,0.00,CLR,,0.00,WeatherDisplay:10.37,2013-05-13 08:58:00,
2013-05-13 05:00:00,45.5,42.2,29.82,ESE,112,1.6,1.6,88,0.00,CLR,,0.00,WeatherDisplay:10.37,2013-05-13 09:00:00,
2013-05-13 05:02:00,45.5,42.2,29.82,ESE,112,2.3,2.5,88,0.00,CLR,,0.00,WeatherDisplay:10.37,2013-05-13 09:02:00,
2013-05-13 05:03:00,45.5,42.2,29.82,ESE,112,2.3,2.5,88,0.00,CLR,,0.00,WeatherDisplay:10.37,2013-05-13 09:03:00,
2013-05-13 05:05:00,45.5,42.2,29.82,ESE,112,1.2,1.6,88,0.00,CLR,,0.00,WeatherDisplay:10.37,2013-05-13 09:05:00,
2013-05-13 05:08:00,45.5,42.2,29.81,ESE,112,2.3,2.3,88,0.00,CLR,,0.00,WeatherDisplay:10.37,2013-05-13 09:08:00,
2013-05-13 05:09:00,45.3,42.0,29.82,ESE,112,2.3,2.3,88,0.00,CLR,,0.00,WeatherDisplay:10.37,2013-05-13 09:09:00,
2013-05-13 05:11:00,45.3,42.0,29.81,ESE,112,2.3,2.3,88,0.00,CLR,,0.00,WeatherDisplay:10.37,2013-05-13 09:11:00,
2013-05-13 05:13:00,45.3,42.0,29.81,ESE,112,2.3,2.3,88,0.00,CLR,,0.00,WeatherDisplay:10.37,2013-05-13 09:13:00,
2013-05-13 05:15:00,45.3,42.0,29.81,ESE,112,2.3,2.3,88,0.00,CLR,,0.00,WeatherDisplay:10.37,2013-05-13 09:15:00,
2013-05-13 05:17:00,45.3,42.0,29.81,ESE,112,2.3,2.3,88,0.00,CLR,,0.00,WeatherDisplay:10.37,2013-05-13 09:17:00,
2013-05-13 05:18:00,45.1,41.8,29.81,ESE,112,2.5,2.5,88,0.00,CLR,,0.00,WeatherDisplay:10.37,2013-05-13 09:18:00,
2013-05-13 05:19:00,45.1,41.8,29.81,ESE,112,2.3,2.5,88,0.00,CLR,,0.00,WeatherDisplay:10.37,2013-05-13 09:19:00,
2013-05-13 05:21:00,45.1,41.8,29.81,ESE,112,3.5,3.5,88,0.00,CLR,,0.00,WeatherDisplay:10.37,2013-05-13 09:21:00,
2013-05-13 05:23:00,45.1,41.8,29.81,ESE,112,2.3,2.3,88,0.00,CLR,,0.00,WeatherDisplay:10.37,2013-05-13 09:23:00,
2013-05-13 05:24:00,45.1,41.8,29.81,ESE,112,2.3,2.3,88,0.00,CLR,,0.00,WeatherDisplay:10.37,2013-05-13 09:24:00,
2013-05-13 05:26:00,45.1,41.8,29.81,ESE,112,1.3,1.3,88,0.00,CLR,,0.00,WeatherDisplay:10.37,2013-05-13 09:26:00,
2013-05-13 05:27:00,45.1,41.8,29.82,ESE,112,1.2,1.3,88,0.00,CLR,,0.00,WeatherDisplay:10.37,2013-05-13 09:27:00,
2013-05-13 05:28:00,45.1,41.8,29.82,ESE,112,2.3,2.3,88,0.00,CLR,,0.00,WeatherDisplay:10.37,2013-05-13 09:28:00,
2013-05-13 05:29:00,45.1,41.8,29.81,ESE,112,2.3,2.3,88,0.00,CLR,,0.00,WeatherDisplay:10.37,2013-05-13 09:29:00,
2013-05-13 05:31:00,45.1,41.8,29.82,ESE,112,2.3,2.3,88,0.00,CLR,,0.00,WeatherDisplay:10.37,2013-05-13 09:31:00,
2013-05-13 05:32:00,45.1,41.8,29.82,ESE,112,2.3,2.3,88,0.00,CLR,,0.00,WeatherDisplay:10.37,2013-05-13 09:32:00,
2013-05-13 05:34:00,45.1,41.5,29.82,ESE,112,2.3,2.3,87,0.00,CLR,,0.00,WeatherDisplay:10.37,2013-05-13 09:34:00,
2013-05-13 05:35:00,45.1,41.5,29.82,ESE,112,2.0,0.0,87,0.00,CLR,,0.00,WeatherDisplay:10.37,2013-05-13 09:35:00,
2013-05-13 05:36:00,45.1,41.5,29.82,ESE,112,2.3,2.3,87,0.00,CLR,,0.00,WeatherDisplay:10.37,2013-05-13 09:36:00,
2013-05-13 05:40:00,45.1,41.5,29.82,ESE,112,1.0,0.0,87,0.00,CLR,,0.00,WeatherDisplay:10.37,2013-05-13 09:40:00,
2013-05-13 05:42:00,45.1,41.5,29.82,ESE,112,2.3,0.0,87,0.00,CLR,,0.00,WeatherDisplay:10.37,2013-05-13 09:42:00,
2013-05-13 05:45:00,45.1,41.5,29.83,ESE,112,0.0,0.0,87,0.00,CLR,,0.00,WeatherDisplay:10.37,2013-05-13 09:45:00,
2013-05-13 05:46:00,45.0,41.3,29.83,ESE,112,1.2,1.2,87,0.00,CLR,,0.00,WeatherDisplay:10.37,2013-05-13 09:46:00,
2013-05-13 05:47:00,45.1,41.5,29.83,ESE,112,1.2,1.2,87,0.00,CLR,,0.00,WeatherDisplay:10.37,2013-05-13 09:47:00,
2013-05-13 05:48:00,45.1,41.5,29.83,ESE,112,1.2,1.2,87,0.00,CLR,,0.00,WeatherDisplay:10.37,2013-05-13 09:48:00,
2013-05-13 05:50:00,45.1,41.5,29.83,ESE,112,2.3,2.3,87,0.00,CLR,,0.00,WeatherDisplay:10.37,2013-05-13 09:50:00,
2013-05-13 05:51:00,45.1,41.5,29.83,ESE,112,2.3,2.3,87,0.00,CLR,,0.00,WeatherDisplay:10.37,2013-05-13 09:51:00,
2013-05-13 05:52:00,45.3,41.7,29.83,ESE,112,1.2,1.2,87,0.00,CLR,,0.00,WeatherDisplay:10.37,2013-05-13 09:52:00,
2013-05-13 05:54:00,45.3,41.7,29.82,ESE,112,0.0,0.0,87,0.00,CLR,,0.00,WeatherDisplay:10.37,2013-05-13 09:54:00,
2013-05-13 05:55:00,45.3,41.7,29.82,ESE,112,0.0,0.0,87,0.00,CLR,,0.00,WeatherDisplay:10.37,2013-05-13 09:55:00,
2013-05-13 05:56:00,45.3,41.7,29.82,ESE,112,0.0,0.0,87,0.00,CLR,,0.00,WeatherDisplay:10.37,2013-05-13 09:56:00,
2013-05-13 05:57:00,45.3,41.7,29.82,ESE,112,0.0,0.0,87,0.00,CLR,,0.00,WeatherDisplay:10.37,2013-05-13 09:57:00,
2013-05-13 05:58:00,45.3,41.7,29.82,ESE,112,0.0,0.0,87,0.00,CLR,,0.00,WeatherDisplay:10.37,2013-05-13 09:58:00,
2013-05-13 05:59:00,45.3,41.7,29.82,ESE,112,1.2,1.2,87,0.00,CLR,,0.00,WeatherDisplay:10.37,2013-05-13 09:59:00,
2013-05-13 06:01:00,45.3,41.7,29.82,ESE,112,2.3,2.3,87,0.00,CLR,,0.00,WeatherDisplay:10.37,2013-05-13 10:01:00,
2013-05-13 06:03:00,45.3,41.7,29.82,ESE,112,2.3,2.3,87,0.00,CLR,,0.00,WeatherDisplay:10.37,2013-05-13 10:03:00,
2013-05-13 06:05:00,45.3,41.7,29.82,ESE,112,1.2,2.2,87,0.00,CLR,,0.00,WeatherDisplay:10.37,2013-05-13 10:05:00,
2013-05-13 06:06:00,45.3,41.7,29.82,ESE,112,2.3,2.3,87,0.00,CLR,,0.00,WeatherDisplay:10.37,2013-05-13 10:06:00,
2013-05-13 06:08:00,45.3,41.7,29.82,ESE,112,2.3,2.7,87,0.00,CLR,,0.00,WeatherDisplay:10.37,2013-05-13 10:08:00,
2013-05-13 06:09:00,45.1,41.5,29.82,ESE,112,0.0,0.0,87,0.00,CLR,,0.00,WeatherDisplay:10.37,2013-05-13 10:09:00,
2013-05-13 06:10:00,45.1,41.5,29.82,ESE,112,0.0,0.0,87,0.00,CLR,,0.00,WeatherDisplay:10.37,2013-05-13 10:10:00,
2013-05-13 06:12:00,45.0,41.3,29.82,ESE,112,1.2,1.2,87,0.00,CLR,,0.00,WeatherDisplay:10.37,2013-05-13 10:12:00,
2013-05-13 06:14:00,45.0,41.3,29.82,ESE,112,1.2,1.2,87,0.00,CLR,,0.00,WeatherDisplay:10.37,2013-05-13 10:14:00,
2013-05-13 06:15:00,45.0,41.3,29.82,ESE,112,1.2,1.2,87,0.00,CLR,,0.00,WeatherDisplay:10.37,2013-05-13 10:15:00,
2013-05-13 06:17:00,45.0,41.3,29.82,ESE,112,1.2,1.2,87,0.00,CLR,,0.00,WeatherDisplay:10.37,2013-05-13 10:17:00,
2013-05-13 06:20:00,44.8,41.1,29.82,ESE,112,2.3,2.3,87,0.00,CLR,,0.00,WeatherDisplay:10.37,2013-05-13 10:20:00,
2013-05-13 06:22:00,44.8,41.1,29.83,ESE,112,0.0,0.0,87,0.00,CLR,,0.00,WeatherDisplay:10.37,2013-05-13 10:22:00,
2013-05-13 06:24:00,44.8,41.1,29.83,ESE,112,1.2,1.6,87,0.00,CLR,,0.00,WeatherDisplay:10.37,2013-05-13 10:24:00,
2013-05-13 06:25:00,44.8,41.1,29.82,ESE,112,1.2,1.6,87,0.00,CLR,,0.00,WeatherDisplay:10.37,2013-05-13 10:25:00,
2013-05-13 06:26:00,44.8,41.1,29.82,ESE,112,1.2,1.6,87,0.00,CLR,,0.00,WeatherDisplay:10.37,2013-05-13 10:26:00,
2013-05-13 06:28:00,44.6,41.0,29.82,ESE,112,2.3,2.3,87,0.00,CLR,,0.00,WeatherDisplay:10.37,2013-05-13 10:28:00,
2013-05-13 06:30:00,44.6,41.0,29.82,ESE,112,2.3,2.3,87,0.00,CLR,,0.00,WeatherDisplay:10.37,2013-05-13 10:30:00,
2013-05-13 06:31:00,44.8,41.1,29.82,ESE,112,2.3,2.5,87,0.00,CLR,,0.00,WeatherDisplay:10.37,2013-05-13 10:31:00,
2013-05-13 06:34:00,44.8,41.1,29.82,ESE,112,1.6,1.6,87,0.00,CLR,,0.00,WeatherDisplay:10.37,2013-05-13 10:34:00,
2013-05-13 06:35:00,44.8,41.4,29.82,ESE,112,1.2,1.6,88,0.00,CLR,,0.00,WeatherDisplay:10.37,2013-05-13 10:35:00,
2013-05-13 06:36:00,44.8,41.4,29.82,ESE,112,1.2,1.6,88,0.00,CLR,,0.00,WeatherDisplay:10.37,2013-05-13 10:36:00,
2013-05-13 06:37:00,44.8,41.1,29.82,ESE,112,2.3,2.3,87,0.00,CLR,,0.00,WeatherDisplay:10.37,2013-05-13 10:37:00,
2013-05-13 06:38:00,44.8,41.1,29.82,ESE,112,2.3,2.3,87,0.00,CLR,,0.00,WeatherDisplay:10.37,2013-05-13 10:38:00,
2013-05-13 06:39:00,44.8,41.1,29.82,ESE,112,2.3,2.3,87,0.00,CLR,,0.00,WeatherDisplay:10.37,2013-05-13 10:39:00,
2013-05-13 06:40:00,44.8,41.1,29.82,ESE,112,0.0,0.0,87,0.00,CLR,,0.00,WeatherDisplay:10.37,2013-05-13 10:40:00,
2013-05-13 06:42:00,44.8,41.1,29.83,ESE,112,2.3,2.3,87,0.00,CLR,,0.00,WeatherDisplay:10.37,2013-05-13 10:42:00,
2013-05-13 06:43:00,44.8,41.1,29.82,ESE,112,2.3,2.3,87,0.00,CLR,,0.00,WeatherDisplay:10.37,2013-05-13 10:43:00,
2013-05-13 06:44:00,44.8,41.1,29.82,ESE,112,1.2,1.3,87,0.00,CLR,,0.00,WeatherDisplay:10.37,2013-05-13 10:44:00,
2013-05-13 06:45:00,44.8,41.1,29.83,ESE,112,1.0,0.0,87,0.00,CLR,,0.00,WeatherDisplay:10.37,2013-05-13 10:45:00,
2013-05-13 06:47:00,45.0,41.3,29.82,ESE,112,3.5,3.5,87,0.00,CLR,,0.00,WeatherDisplay:10.37,2013-05-13 10:47:00,
2013-05-13 06:48:00,45.0,41.3,29.82,ESE,112,2.3,2.3,87,0.00,CLR,,0.00,WeatherDisplay:10.37,2013-05-13 10:48:00,
2013-05-13 06:49:00,45.0,41.3,29.82,ESE,112,2.3,2.3,87,0.00,CLR,,0.00,WeatherDisplay:10.37,2013-05-13 10:49:00,
2013-05-13 06:50:00,45.0,41.3,29.83,ESE,112,1.0,0.0,87,0.00,CLR,,0.00,WeatherDisplay:10.37,2013-05-13 10:50:00,
2013-05-13 06:53:00,45.1,41.5,29.82,ESE,112,0.0,0.0,87,0.00,CLR,,0.00,WeatherDisplay:10.37,2013-05-13 10:53:00,
2013-05-13 06:54:00,45.1,41.5,29.82,ESE,112,0.0,0.0,87,0.00,CLR,,0.00,WeatherDisplay:10.37,2013-05-13 10:54:00,
2013-05-13 06:55:00,45.3,41.7,29.83,ESE,112,0.0,0.0,87,0.00,CLR,,0.00,WeatherDisplay:10.37,2013-05-13 10:55:00,
2013-05-13 06:58:00,45.3,41.7,29.83,ESE,112,0.0,0.0,87,0.00,CLR,,0.00,WeatherDisplay:10.37,2013-05-13 10:58:00,
2013-05-13 07:00:00,45.5,41.9,29.82,ESE,112,2.3,2.3,87,0.00,CLR,,0.00,WeatherDisplay:10.37,2013-05-13 11:00:00,
2013-05-13 07:01:00,45.3,41.7,29.83,ESE,112,3.5,3.5,87,0.00,CLR,,0.00,WeatherDisplay:10.37,2013-05-13 11:01:00,
2013-05-13 07:03:00,45.3,41.7,29.83,ESE,112,2.3,2.3,87,0.00,CLR,,0.00,WeatherDisplay:10.37,2013-05-13 11:03:00,
2013-05-13 07:04:00,45.3,41.7,29.83,ESE,112,2.3,2.3,87,0.00,CLR,,0.00,WeatherDisplay:10.37,2013-05-13 11:04:00,
2013-05-13 07:06:00,45.5,41.9,29.83,ESE,112,0.0,0.0,87,0.00,CLR,,0.00,WeatherDisplay:10.37,2013-05-13 11:06:00,
2013-05-13 07:07:00,45.5,41.9,29.83,ESE,112,0.0,0.0,87,0.00,CLR,,0.00,WeatherDisplay:10.37,2013-05-13 11:07:00,
2013-05-13 07:09:00,45.9,42.2,29.83,ESE,112,0.0,0.0,87,0.00,CLR,,0.00,WeatherDisplay:10.37,2013-05-13 11:09:00,
2013-05-13 07:10:00,46.0,42.4,29.83,ESE,112,0.0,0.0,87,0.00,CLR,,0.00,WeatherDisplay:10.37,2013-05-13 11:10:00,
2013-05-13 07:11:00,46.0,42.4,29.83,ESE,112,0.0,0.0,87,0.00,CLR,,0.00,WeatherDisplay:10.37,2013-05-13 11:11:00,
2013-05-13 07:12:00,46.0,42.4,29.83,ESE,112,0.0,0.0,87,0.00,CLR,,0.00,WeatherDisplay:10.37,2013-05-13 11:12:00,
2013-05-13 07:15:00,46.0,42.4,29.83,ESE,112,0.0,0.0,87,0.00,CLR,,0.00,WeatherDisplay:10.37,2013-05-13 11:15:00,
2013-05-13 07:17:00,46.2,42.6,29.83,ESE,112,0.0,0.0,87,0.00,CLR,,0.00,WeatherDisplay:10.37,2013-05-13 11:17:00,
2013-05-13 07:18:00,46.2,42.6,29.83,ESE,112,0.0,0.0,87,0.00,CLR,,0.00,WeatherDisplay:10.37,2013-05-13 11:18:00,
2013-05-13 07:20:00,46.2,42.6,29.83,ESE,112,0.0,0.0,87,0.00,CLR,,0.00,WeatherDisplay:10.37,2013-05-13 11:20:00,
2013-05-13 07:21:00,46.2,42.6,29.83,ESE,112,0.0,0.0,87,0.00,CLR,,0.00,WeatherDisplay:10.37,2013-05-13 11:21:00,
2013-05-13 07:23:00,46.2,42.6,29.82,ESE,112,0.0,0.0,87,0.00,CLR,,0.00,WeatherDisplay:10.37,2013-05-13 11:23:00,
2013-05-13 07:25:00,46.2,42.6,29.83,ESE,112,0.0,0.0,87,0.00,CLR,,0.00,WeatherDisplay:10.37,2013-05-13 11:25:00,
2013-05-13 07:26:00,46.2,42.6,29.83,ESE,112,0.0,0.0,87,0.00,CLR,,0.00,WeatherDisplay:10.37,2013-05-13 11:26:00,
2013-05-13 07:27:00,46.6,42.6,29.82,ESE,112,0.0,0.0,86,0.00,CLR,,0.00,WeatherDisplay:10.37,2013-05-13 11:27:00,
2013-05-13 07:28:00,46.6,42.6,29.82,ESE,112,0.0,0.0,86,0.00,CLR,,0.00,WeatherDisplay:10.37,2013-05-13 11:28:00,
2013-05-13 07:30:00,46.6,42.6,29.82,ESE,112,0.0,0.0,86,0.00,CLR,,0.00,WeatherDisplay:10.37,2013-05-13 11:30:00,
2013-05-13 07:31:00,46.6,42.6,29.82,ESE,112,1.2,1.3,86,0.00,CLR,,0.00,WeatherDisplay:10.37,2013-05-13 11:31:00,
2013-05-13 07:32:00,46.6,42.6,29.82,ESE,112,1.2,1.3,86,0.00,CLR,,0.00,WeatherDisplay:10.37,2013-05-13 11:32:00,
2013-05-13 07:35:00,46.8,42.8,29.83,ESE,112,1.2,1.2,86,0.00,CLR,,0.00,WeatherDisplay:10.37,2013-05-13 11:35:00,
2013-05-13 07:36:00,46.9,43.0,29.83,ESE,112,0.0,0.0,86,0.00,CLR,,0.00,WeatherDisplay:10.37,2013-05-13 11:36:00,
2013-05-13 07:37:00,46.9,43.0,29.82,ESE,112,0.0,0.0,86,0.00,CLR,,0.00,WeatherDisplay:10.37,2013-05-13 11:37:00,
2013-05-13 07:38:00,46.9,43.0,29.82,ESE,112,3.5,3.5,86,0.00,CLR,,0.00,WeatherDisplay:10.37,2013-05-13 11:38:00,
2013-05-13 07:41:00,47.3,43.3,29.82,ESE,112,0.0,0.0,86,0.00,CLR,,0.00,WeatherDisplay:10.37,2013-05-13 11:41:00,
2013-05-13 07:42:00,47.7,43.4,29.82,ESE,112,0.0,0.0,85,0.00,CLR,,0.00,WeatherDisplay:10.37,2013-05-13 11:42:00,
2013-05-13 07:43:00,47.7,43.4,29.82,ESE,112,0.0,0.0,85,0.00,CLR,,0.00,WeatherDisplay:10.37,2013-05-13 11:43:00,
2013-05-13 07:44:00,48.0,43.7,29.82,ESE,112,0.0,0.0,85,0.00,CLR,,0.00,WeatherDisplay:10.37,2013-05-13 11:44:00,
2013-05-13 07:47:00,48.4,43.8,29.82,ESE,112,0.4,0.4,84,0.00,CLR,,0.00,WeatherDisplay:10.37,2013-05-13 11:47:00,
2013-05-13 07:48:00,48.7,44.1,29.82,ESE,112,0.0,0.0,84,0.00,CLR,,0.00,WeatherDisplay:10.37,2013-05-13 11:48:00,
2013-05-13 07:49:00,48.7,44.1,29.82,ESE,112,0.0,0.0,84,0.00,CLR,,0.00,WeatherDisplay:10.37,2013-05-13 11:49:00,
2013-05-13 07:52:00,49.1,44.2,29.82,ESE,112,0.0,0.0,83,0.00,CLR,,0.00,WeatherDisplay:10.37,2013-05-13 11:52:00,
2013-05-13 07:53:00,49.6,44.4,29.82,ESE,112,3.4,3.4,82,0.00,CLR,,0.00,WeatherDisplay:10.37,2013-05-13 11:53:00,
2013-05-13 07:54:00,49.6,44.4,29.82,ESE,112,3.5,3.5,82,0.00,CLR,,0.00,WeatherDisplay:10.37,2013-05-13 11:54:00,
2013-05-13 07:55:00,49.8,44.5,29.82,ESE,112,3.5,0.0,82,0.00,CLR,,0.00,WeatherDisplay:10.37,2013-05-13 11:55:00,
2013-05-13 07:57:00,50.2,44.6,29.82,ESE,112,2.5,2.5,81,0.00,CLR,,0.00,WeatherDisplay:10.37,2013-05-13 11:57:00,
2013-05-13 07:58:00,50.2,44.6,29.82,ESE,112,0.0,2.5,81,0.00,CLR,,0.00,WeatherDisplay:10.37,2013-05-13 11:58:00,
2013-05-13 08:00:00,50.5,44.9,29.82,ESE,112,2.7,2.7,81,0.00,CLR,,0.00,WeatherDisplay:10.37,2013-05-13 12:00:00,
2013-05-13 08:01:00,50.5,44.9,29.82,ESE,112,2.3,2.7,81,0.00,CLR,,0.00,WeatherDisplay:10.37,2013-05-13 12:01:00,
2013-05-13 08:03:00,50.9,45.3,29.82,ESE,112,0.0,0.0,81,0.00,CLR,,0.00,WeatherDisplay:10.37,2013-05-13 12:03:00,
2013-05-13 08:04:00,51.4,45.1,29.82,ESE,112,0.0,0.4,79,0.00,CLR,,0.00,WeatherDisplay:10.37,2013-05-13 12:04:00,
2013-05-13 08:05:00,51.4,45.1,29.82,ESE,112,0.4,0.4,79,0.00,CLR,,0.00,WeatherDisplay:10.37,2013-05-13 12:05:00,
2013-05-13 08:07:00,51.6,45.0,29.82,ESE,112,0.0,0.0,78,0.00,CLR,,0.00,WeatherDisplay:10.37,2013-05-13 12:07:00,
2013-05-13 08:08:00,51.6,45.3,29.82,East,90,0.0,0.0,79,0.00,CLR,,0.00,WeatherDisplay:10.37,2013-05-13 12:08:00,
2013-05-13 08:10:00,51.6,45.3,29.82,ESE,106,0.0,0.0,79,0.00,CLR,,0.00,WeatherDisplay:10.37,2013-05-13 12:10:00,
2013-05-13 08:13:00,52.0,45.3,29.83,ESE,112,0.0,2.0,78,0.00,CLR,,0.00,WeatherDisplay:10.37,2013-05-13 12:13:00,
2013-05-13 08:14:00,52.0,45.3,29.83,ESE,112,2.3,2.3,78,0.00,CLR,,0.00,WeatherDisplay:10.37,2013-05-13 12:14:00,
2013-05-13 08:15:00,52.0,45.0,29.82,ESE,112,0.0,0.0,77,0.00,CLR,,0.00,WeatherDisplay:10.37,2013-05-13 12:15:00,
2013-05-13 08:16:00,52.2,45.2,29.83,SE,135,0.7,0.7,77,0.00,CLR,,0.00,WeatherDisplay:10.37,2013-05-13 12:16:00,
2013-05-13 08:19:00,52.3,45.3,29.83,ESE,112,1.2,1.6,77,0.00,CLR,,0.00,WeatherDisplay:10.37,2013-05-13 12:19:00,
2013-05-13 08:20:00,52.3,45.3,29.83,ESE,112,1.2,1.6,77,0.00,CLR,,0.00,WeatherDisplay:10.37,2013-05-13 12:20:00,
2013-05-13 08:22:00,52.5,45.5,29.83,SE,135,0.0,0.0,77,0.00,CLR,,0.00,WeatherDisplay:10.37,2013-05-13 12:22:00,
2013-05-13 08:23:00,52.5,45.5,29.83,SE,135,0.0,0.0,77,0.00,CLR,,0.00,WeatherDisplay:10.37,2013-05-13 12:23:00,
2013-05-13 08:24:00,52.3,45.3,29.83,ESE,112,1.6,1.6,77,0.00,CLR,,0.00,WeatherDisplay:10.37,2013-05-13 12:24:00,
2013-05-13 08:25:00,52.5,45.5,29.83,ESE,112,1.2,1.2,77,0.00,CLR,,0.00,WeatherDisplay:10.37,2013-05-13 12:25:00,
2013-05-13 08:27:00,52.5,45.5,29.83,ESE,112,1.2,1.2,77,0.00,CLR,,0.00,WeatherDisplay:10.37,2013-05-13 12:27:00,
2013-05-13 08:28:00,52.5,45.5,29.83,ESE,112,4.6,4.9,77,0.00,CLR,,0.00,WeatherDisplay:10.37,2013-05-13 12:28:00,
2013-05-13 08:30:00,53.2,46.2,29.83,ESE,116,1.0,0.0,77,0.00,CLR,,0.00,WeatherDisplay:10.37,2013-05-13 12:30:00,
2013-05-13 08:31:00,53.2,46.2,29.83,ESE,112,1.2,1.2,77,0.00,CLR,,0.00,WeatherDisplay:10.37,2013-05-13 12:31:00,
2013-05-13 08:32:00,53.8,46.4,29.83,ESE,112,1.2,0.0,76,0.00,CLR,,0.00,WeatherDisplay:10.37,2013-05-13 12:32:00,
2013-05-13 08:35:00,54.0,46.6,29.83,ESE,112,0.0,0.0,76,0.00,CLR,,0.00,WeatherDisplay:10.37,2013-05-13 12:35:00,
2013-05-13 08:36:00,54.1,46.7,29.83,ESE,112,0.0,0.0,76,0.00,CLR,,0.00,WeatherDisplay:10.37,2013-05-13 12:36:00,
2013-05-13 08:37:00,54.1,46.7,29.83,ESE,112,0.0,0.0,76,0.00,CLR,,0.00,WeatherDisplay:10.37,2013-05-13 12:37:00,
2013-05-13 08:40:00,54.1,46.7,29.83,ESE,112,0.0,0.0,76,0.00,CLR,,0.00,WeatherDisplay:10.37,2013-05-13 12:40:00,
2013-05-13 08:41:00,54.3,46.9,29.83,ESE,112,0.0,0.0,76,0.00,CLR,,0.00,WeatherDisplay:10.37,2013-05-13 12:41:00,
2013-05-13 08:42:00,54.3,46.9,29.83,ESE,112,0.0,0.0,76,0.00,CLR,,0.00,WeatherDisplay:10.37,2013-05-13 12:42:00,
2013-05-13 08:43:00,54.1,46.7,29.83,ESE,112,0.0,0.0,76,0.00,CLR,,0.00,WeatherDisplay:10.37,2013-05-13 12:43:00,
2013-05-13 08:45:00,54.3,46.6,29.83,ESE,114,0.0,0.0,75,0.00,CLR,,0.00,WeatherDisplay:10.37,2013-05-13 12:45:00,
2013-05-13 08:46:00,54.3,46.6,29.83,SE,135,1.8,1.8,75,0.00,CLR,,0.00,WeatherDisplay:10.37,2013-05-13 12:46:00,
2013-05-13 08:47:00,54.3,46.6,29.83,SE,135,2.3,2.3,75,0.00,CLR,,0.00,WeatherDisplay:10.37,2013-05-13 12:47:00,
2013-05-13 08:48:00,54.3,46.6,29.83,SE,135,2.3,2.3,75,0.00,CLR,,0.00,WeatherDisplay:10.37,2013-05-13 12:48:00,
2013-05-13 08:50:00,55.0,46.9,29.83,ESE,112,0.0,0.0,74,0.00,CLR,,0.00,WeatherDisplay:10.37,2013-05-13 12:50:00,
2013-05-13 08:51:00,55.0,46.9,29.83,ESE,112,0.0,0.0,74,0.00,CLR,,0.00,WeatherDisplay:10.37,2013-05-13 12:51:00,
2013-05-13 08:52:00,56.1,47.6,29.83,ESE,112,0.0,0.0,73,0.00,CLR,,0.00,WeatherDisplay:10.37,2013-05-13 12:52:00,
2013-05-13 08:53:00,56.1,47.6,29.83,ESE,112,0.0,0.0,73,0.00,CLR,,0.00,WeatherDisplay:10.37,2013-05-13 12:53:00,
2013-05-13 08:56:00,59.0,48.8,29.83,ESE,112,0.0,0.0,69,0.00,CLR,,0.00,WeatherDisplay:10.37,2013-05-13 12:56:00,
2013-05-13 08:57:00,59.0,48.8,29.83,ESE,112,0.0,0.0,69,0.00,CLR,,0.00,WeatherDisplay:10.37,2013-05-13 12:57:00,
2013-05-13 08:58:00,60.1,50.3,29.82,ESE,112,0.0,0.0,70,0.00,CLR,,0.00,WeatherDisplay:10.37,2013-05-13 12:58:00,
2013-05-13 08:59:00,60.1,50.3,29.83,ESE,112,0.0,0.0,70,0.00,CLR,,0.00,WeatherDisplay:10.37,2013-05-13 12:59:00,
2013-05-13 09:01:00,61.5,50.9,29.82,ESE,112,2.3,2.3,68,0.00,CLR,,0.00,WeatherDisplay:10.37,2013-05-13 13:01:00,
2013-05-13 09:02:00,62.8,50.4,29.83,ESE,112,2.3,2.3,64,0.00,CLR,,0.00,WeatherDisplay:10.37,2013-05-13 13:02:00,
2013-05-13 09:03:00,63.9,50.6,29.83,ESE,112,2.3,0.0,62,0.00,CLR,,0.00,WeatherDisplay:10.37,2013-05-13 13:03:00,
2013-05-13 09:04:00,63.9,50.6,29.83,ESE,112,0.0,0.0,62,0.00,CLR,,0.00,WeatherDisplay:10.37,2013-05-13 13:04:00,
2013-05-13 09:08:00,64.6,50.4,29.83,ESE,112,0.2,0.2,60,0.00,CLR,,0.00,WeatherDisplay:10.37,2013-05-13 13:08:00,
2013-05-13 09:09:00,65.5,51.7,29.82,ESE,112,0.0,0.0,61,0.00,CLR,,0.00,WeatherDisplay:10.37,2013-05-13 13:09:00,
2013-05-13 09:10:00,65.5,51.7,29.82,ESE,112,0.0,0.0,61,0.00,CLR,,0.00,WeatherDisplay:10.37,2013-05-13 13:10:00,
2013-05-13 09:13:00,66.6,51.8,29.83,ESE,112,0.0,3.6,59,0.00,CLR,,0.00,WeatherDisplay:10.37,2013-05-13 13:13:00,
2013-05-13 09:14:00,66.6,51.8,29.82,ESE,112,3.5,3.6,59,0.00,CLR,,0.00,WeatherDisplay:10.37,2013-05-13 13:14:00,
2013-05-13 09:15:00,67.6,51.9,29.82,ESE,112,0.0,0.0,57,0.00,CLR,,0.00,WeatherDisplay:10.37,2013-05-13 13:15:00,
2013-05-13 09:16:00,67.6,51.9,29.82,ESE,112,0.0,0.0,57,0.00,CLR,,0.00,WeatherDisplay:10.37,2013-05-13 13:16:00,
2013-05-13 09:18:00,68.5,51.2,29.82,ESE,112,0.0,0.0,54,0.00,CLR,,0.00,WeatherDisplay:10.37,2013-05-13 13:18:00,
2013-05-13 09:19:00,68.5,51.2,29.82,ESE,112,0.0,0.0,54,0.00,CLR,,0.00,WeatherDisplay:10.37,2013-05-13 13:19:00,
2013-05-13 09:20:00,68.5,51.2,29.82,ESE,112,1.2,1.2,54,0.00,CLR,,0.00,WeatherDisplay:10.37,2013-05-13 13:20:00,
2013-05-13 09:21:00,68.5,51.2,29.82,ESE,112,1.2,1.2,54,0.00,CLR,,0.00,WeatherDisplay:10.37,2013-05-13 13:21:00,
2013-05-13 09:23:00,68.9,51.6,29.82,ESE,112,2.3,2.3,54,0.00,CLR,,0.00,WeatherDisplay:10.37,2013-05-13 13:23:00,
2013-05-13 09:24:00,69.6,52.2,29.82,SE,135,0.0,0.0,54,0.00,CLR,,0.00,WeatherDisplay:10.37,2013-05-13 13:24:00,
2013-05-13 09:25:00,69.6,52.2,29.82,SE,135,0.0,0.0,54,0.00,CLR,,0.00,WeatherDisplay:10.37,2013-05-13 13:25:00,
2013-05-13 09:27:00,71.2,52.7,29.82,East,90,4.0,4.0,52,0.00,CLR,,0.00,WeatherDisplay:10.37,2013-05-13 13:27:00,
2013-05-13 09:29:00,71.2,52.7,29.82,East,90,4.0,4.0,52,0.00,CLR,,0.00,WeatherDisplay:10.37,2013-05-13 13:29:00,
2013-05-13 09:31:00,71.1,52.5,29.82,SE,135,0.0,0.0,52,0.00,CLR,,0.00,WeatherDisplay:10.37,2013-05-13 13:31:00,
2013-05-13 09:33:00,71.2,52.2,29.82,ESE,112,4.6,4.7,51,0.00,CLR,,0.00,WeatherDisplay:10.37,2013-05-13 13:33:00,
2013-05-13 09:35:00,71.2,52.7,29.82,SE,135,0.0,0.0,52,0.00,CLR,,0.00,WeatherDisplay:10.37,2013-05-13 13:35:00,
2013-05-13 09:36:00,71.2,52.7,29.82,SE,135,0.0,0.0,52,0.00,CLR,,0.00,WeatherDisplay:10.37,2013-05-13 13:36:00,
2013-05-13 09:37:00,72.1,53.0,29.82,ESE,112,4.0,4.0,51,0.00,CLR,,0.00,WeatherDisplay:10.37,2013-05-13 13:37:00,
2013-05-13 09:39:00,72.5,52.2,29.82,SE,135,2.5,2.5,49,0.00,CLR,,0.00,WeatherDisplay:10.37,2013-05-13 13:39:00,
2013-05-13 09:40:00,72.5,52.2,29.82,SE,135,2.3,2.5,49,0.00,CLR,,0.00,WeatherDisplay:10.37,2013-05-13 13:40:00,
2013-05-13 09:41:00,72.3,52.1,29.82,ESE,112,2.3,2.3,49,0.00,CLR,,0.00,WeatherDisplay:10.37,2013-05-13 13:41:00,
2013-05-13 09:43:00,72.1,51.4,29.82,SW,225,0.0,0.0,48,0.00,CLR,,0.00,WeatherDisplay:10.37,2013-05-13 13:43:00,
2013-05-13 09:44:00,72.1,51.4,29.82,SW,225,0.0,0.0,48,0.00,CLR,,0.00,WeatherDisplay:10.37,2013-05-13 13:44:00,
2013-05-13 09:45:00,72.3,52.1,29.82,SE,135,0.0,0.0,49,0.00,CLR,,0.00,WeatherDisplay:10.37,2013-05-13 13:45:00,
2013-05-13 09:47:00,72.9,52.0,29.81,SE,135,3.8,3.8,48,0.00,CLR,,0.00,WeatherDisplay:10.37,2013-05-13 13:47:00,
2013-05-13 09:48:00,72.9,52.0,29.81,SE,135,3.8,3.8,48,0.00,CLR,,0.00,WeatherDisplay:10.37,2013-05-13 13:48:00,
2013-05-13 09:49:00,72.9,52.0,29.81,SE,135,3.5,3.8,48,0.00,CLR,,0.00,WeatherDisplay:10.37,2013-05-13 13:49:00,
2013-05-13 09:50:00,72.7,53.0,29.81,SE,139,0.0,0.0,50,0.00,CLR,,0.00,WeatherDisplay:10.37,2013-05-13 13:50:00,
2013-05-13 09:51:00,72.7,53.0,29.81,SSE,158,0.0,0.0,50,0.00,CLR,,0.00,WeatherDisplay:10.37,2013-05-13 13:51:00,
2013-05-13 09:53:00,73.0,52.2,29.81,ESE,112,1.2,1.2,48,0.00,CLR,,0.00,WeatherDisplay:10.37,2013-05-13 13:53:00,
2013-05-13 09:55:00,73.2,52.9,29.81,SE,135,1.2,1.2,49,0.00,CLR,,0.00,WeatherDisplay:10.37,2013-05-13 13:55:00,
2013-05-13 09:57:00,73.4,53.6,29.81,SSE,158,0.0,0.0,50,0.00,CLR,,0.00,WeatherDisplay:10.37,2013-05-13 13:57:00,
2013-05-13 09:58:00,73.8,52.3,29.83,SSE,158,0.0,0.0,47,0.00,CLR,,0.00,WeatherDisplay:10.37,2013-05-13 13:58:00,
2013-05-13 10:00:00,73.8,51.7,29.83,South,180,0.0,0.0,46,0.00,CLR,,0.00,WeatherDisplay:10.37,2013-05-13 14:00:00,
2013-05-13 10:01:00,73.8,51.7,29.80,South,180,0.0,0.0,46,0.00,CLR,,0.00,WeatherDisplay:10.37,2013-05-13 14:01:00,
2013-05-13 10:02:00,73.8,51.7,29.83,South,180,0.0,0.0,46,0.00,CLR,,0.00,WeatherDisplay:10.37,2013-05-13 14:02:00,
2013-05-13 10:03:00,73.9,51.8,29.83,SSW,202,0.4,0.4,46,0.00,CLR,,0.00,WeatherDisplay:10.37,2013-05-13 14:03:00,
2013-05-13 10:05:00,74.5,52.3,29.83,SSW,202,0.0,0.0,46,0.00,CLR,,0.00,WeatherDisplay:10.37,2013-05-13 14:05:00,
2013-05-13 10:06:00,72.1,57.0,29.72,SSW,202,0.0,0.0,59,0.00,CLR,,0.00,WeatherDisplay:10.37,2013-05-13 14:06:00,
2013-05-13 10:07:00,74.8,52.1,29.81,SSE,158,0.0,0.2,45,0.00,CLR,,0.00,WeatherDisplay:10.37,2013-05-13 14:07:00,
2013-05-13 10:08:00,72.1,57.0,29.72,SSW,202,0.0,0.0,59,0.00,CLR,,0.00,WeatherDisplay:10.37,2013-05-13 14:08:00,
2013-05-13 10:09:00,74.8,52.1,29.83,SSE,158,0.2,0.2,45,0.00,CLR,,0.00,WeatherDisplay:10.37,2013-05-13 14:09:00,
2013-05-13 10:10:00,74.5,51.7,29.80,South,178,0.0,0.0,45,0.00,CLR,,0.00,WeatherDisplay:10.37,2013-05-13 14:10:00,
2013-05-13 10:11:00,74.5,51.7,29.80,East,90,0.0,0.0,45,0.00,CLR,,0.00,WeatherDisplay:10.37,2013-05-13 14:11:00,
2013-05-13 10:12:00,74.1,52.0,29.80,SE,135,0.0,0.0,46,0.00,CLR,,0.00,WeatherDisplay:10.37,2013-05-13 14:12:00,
2013-05-13 10:14:00,74.5,51.7,29.80,ESE,112,0.0,0.0,45,0.00,CLR,,0.00,WeatherDisplay:10.37,2013-05-13 14:14:00,
2013-05-13 10:15:00,74.5,51.7,29.80,ESE,112,0.0,0.0,45,0.00,CLR,,0.00,WeatherDisplay:10.37,2013-05-13 14:15:00,
2013-05-13 10:16:00,74.1,51.4,29.80,SSE,158,1.2,1.2,45,0.00,CLR,,0.00,WeatherDisplay:10.37,2013-05-13 14:16:00,
2013-05-13 10:18:00,73.8,51.7,29.83,SSE,158,0.0,0.0,46,0.00,CLR,,0.00,WeatherDisplay:10.37,2013-05-13 14:18:00,
2013-05-13 10:19:00,73.8,51.7,29.83,SSE,158,0.0,0.0,46,0.00,CLR,,0.00,WeatherDisplay:10.37,2013-05-13 14:19:00,
2013-05-13 10:20:00,73.6,51.5,29.83,ESE,112,0.9,0.9,46,0.00,CLR,,0.00,WeatherDisplay:10.37,2013-05-13 14:20:00,
2013-05-13 10:21:00,73.6,51.5,29.83,ESE,112,1.2,1.2,46,0.00,CLR,,0.00,WeatherDisplay:10.37,2013-05-13 14:21:00,
2013-05-13 10:22:00,73.2,51.8,29.81,South,180,1.2,0.0,47,0.00,CLR,,0.00,WeatherDisplay:10.37,2013-05-13 14:22:00,
2013-05-13 10:24:00,73.2,51.8,29.81,South,180,0.0,0.0,47,0.00,CLR,,0.00,WeatherDisplay:10.37,2013-05-13 14:24:00,
2013-05-13 10:25:00,73.6,51.5,29.81,SE,135,1.6,1.6,46,0.00,CLR,,0.00,WeatherDisplay:10.37,2013-05-13 14:25:00,
2013-05-13 10:27:00,73.6,52.1,29.83,SSW,202,2.3,2.3,47,0.00,CLR,,0.00,WeatherDisplay:10.37,2013-05-13 14:27:00,
2013-05-13 10:29:00,73.2,50.6,29.83,South,180,2.3,4.0,45,0.00,CLR,,0.00,WeatherDisplay:10.37,2013-05-13 14:29:00,
2013-05-13 10:30:00,73.2,51.2,29.83,South,173,0.0,0.0,46,0.00,CLR,,0.00,WeatherDisplay:10.37,2013-05-13 14:30:00,
2013-05-13 10:32:00,73.2,51.2,29.80,SE,135,1.3,1.3,46,0.00,CLR,,0.00,WeatherDisplay:10.37,2013-05-13 14:32:00,
2013-05-13 10:33:00,73.2,51.2,29.83,SE,135,1.2,1.3,46,0.00,CLR,,0.00,WeatherDisplay:10.37,2013-05-13 14:33:00,
2013-05-13 10:34:00,73.0,51.6,29.83,SE,135,2.7,2.7,47,0.00,CLR,,0.00,WeatherDisplay:10.37,2013-05-13 14:34:00,
2013-05-13 10:35:00,73.0,51.6,29.83,SE,135,2.3,2.7,47,0.00,CLR,,0.00,WeatherDisplay:10.37,2013-05-13 14:35:00,
2013-05-13 10:36:00,73.0,51.0,29.83,WSW,248,0.0,0.0,46,0.00,CLR,,0.00,WeatherDisplay:10.37,2013-05-13 14:36:00,
2013-05-13 10:38:00,73.0,51.0,29.80,WSW,248,0.0,0.0,46,0.00,CLR,,0.00,WeatherDisplay:10.37,2013-05-13 14:38:00,
2013-05-13 10:39:00,73.9,51.3,29.83,SW,225,0.0,2.2,45,0.00,CLR,,0.00,WeatherDisplay:10.37,2013-05-13 14:39:00,
2013-05-13 10:40:00,74.1,51.4,29.83,SSW,202,2.3,2.5,45,0.00,CLR,,0.00,WeatherDisplay:10.37,2013-05-13 14:40:00,
2013-05-13 10:43:00,74.8,53.3,29.83,West,270,0.0,0.0,47,0.00,CLR,,0.00,WeatherDisplay:10.37,2013-05-13 14:43:00,
2013-05-13 10:44:00,74.8,52.1,29.83,SSE,158,0.0,0.0,45,0.00,CLR,,0.00,WeatherDisplay:10.37,2013-05-13 14:44:00,
2013-05-13 10:45:00,74.8,52.1,29.83,SSE,158,0.0,0.0,45,0.00,CLR,,0.00,WeatherDisplay:10.37,2013-05-13 14:45:00,
2013-05-13 10:46:00,74.8,52.7,29.83,SW,225,0.0,0.0,46,0.00,CLR,,0.00,WeatherDisplay:10.37,2013-05-13 14:46:00,
2013-05-13 10:48:00,74.8,52.1,29.83,SW,225,0.0,0.0,45,0.00,CLR,,0.00,WeatherDisplay:10.37,2013-05-13 14:48:00,
2013-05-13 10:49:00,74.8,52.1,29.83,SW,225,0.0,0.0,45,0.00,CLR,,0.00,WeatherDisplay:10.37,2013-05-13 14:49:00,
2013-05-13 10:50:00,75.6,52.1,29.83,South,180,8.1,8.1,44,0.00,CLR,,0.00,WeatherDisplay:10.37,2013-05-13 14:50:00,
2013-05-13 10:51:00,75.6,51.5,29.83,South,180,3.5,3.5,43,0.00,CLR,,0.00,WeatherDisplay:10.37,2013-05-13 14:51:00,
2013-05-13 10:52:00,75.6,51.5,29.81,South,180,3.5,3.5,43,0.00,CLR,,0.00,WeatherDisplay:10.37,2013-05-13 14:52:00,
2013-05-13 10:54:00,75.6,53.3,29.83,SSW,202,3.5,3.5,46,0.00,CLR,,0.00,WeatherDisplay:10.37,2013-05-13 14:54:00,
2013-05-13 10:55:00,75.6,53.3,29.83,SSW,202,3.5,3.5,46,0.00,CLR,,0.00,WeatherDisplay:10.37,2013-05-13 14:55:00,
2013-05-13 10:58:00,76.3,53.4,29.81,SW,225,4.6,4.6,45,0.00,CLR,,0.00,WeatherDisplay:10.37,2013-05-13 14:58:00,
2013-05-13 10:59:00,76.3,53.4,29.81,SW,225,4.6,4.6,45,0.00,CLR,,0.00,WeatherDisplay:10.37,2013-05-13 14:59:00,
2013-05-13 11:00:00,76.6,53.7,29.81,South,180,1.2,1.2,45,0.00,CLR,,0.00,WeatherDisplay:10.37,2013-05-13 15:00:00,
2013-05-13 11:04:00,77.4,52.5,29.81,SSW,202,9.2,9.2,42,0.00,CLR,,0.00,WeatherDisplay:10.37,2013-05-13 15:04:00,
2013-05-13 11:05:00,77.4,53.1,29.81,SW,225,9.2,9.2,43,0.00,CLR,,0.00,WeatherDisplay:10.37,2013-05-13 15:05:00,
2013-05-13 11:09:00,75.0,49.1,29.81,SSW,202,19.6,19.6,40,0.00,CLR,,0.00,WeatherDisplay:10.37,2013-05-13 15:09:00,
2013-05-13 11:10:00,74.8,49.6,29.83,SW,214,12.0,0.0,41,0.00,CLR,,0.00,WeatherDisplay:10.37,2013-05-13 15:10:00,
2013-05-13 11:11:00,74.7,49.4,29.83,SW,225,7.4,7.4,41,0.00,CLR,,0.00,WeatherDisplay:10.37,2013-05-13 15:11:00,
2013-05-13 11:15:00,75.0,49.7,29.83,SW,214,5.0,0.0,41,0.00,CLR,,0.00,WeatherDisplay:10.37,2013-05-13 15:15:00,
2013-05-13 11:17:00,75.0,49.1,29.83,SSW,202,13.8,13.8,40,0.00,CLR,,0.00,WeatherDisplay:10.37,2013-05-13 15:17:00,
2013-05-13 11:19:00,75.2,50.5,29.83,SSE,158,0.0,0.0,42,0.00,CLR,,0.00,WeatherDisplay:10.37,2013-05-13 15:19:00,
2013-05-13 11:20:00,75.9,53.0,29.83,SW,222,6.0,0.0,45,0.00,CLR,,0.00,WeatherDisplay:10.37,2013-05-13 15:20:00,
2013-05-13 11:23:00,76.3,50.8,29.80,WSW,248,15.0,15.0,41,0.00,CLR,,0.00,WeatherDisplay:10.37,2013-05-13 15:23:00,
2013-05-13 11:24:00,76.3,51.5,29.80,West,270,8.1,8.1,42,0.00,CLR,,0.00,WeatherDisplay:10.37,2013-05-13 15:24:00,
2013-05-13 11:25:00,76.3,51.5,29.80,West,270,2.5,2.5,42,0.00,CLR,,0.00,WeatherDisplay:10.37,2013-05-13 15:25:00,
2013-05-13 11:26:00,76.3,52.1,29.80,WSW,248,0.0,0.0,43,0.00,CLR,,0.00,WeatherDisplay:10.37,2013-05-13 15:26:00,
2013-05-13 11:28:00,76.3,51.5,29.80,WSW,248,6.7,6.7,42,0.00,CLR,,0.00,WeatherDisplay:10.37,2013-05-13 15:28:00,
2013-05-13 11:29:00,76.6,49.8,29.80,SW,225,10.4,10.4,39,0.00,CLR,,0.00,WeatherDisplay:10.37,2013-05-13 15:29:00,
2013-05-13 11:30:00,76.6,49.8,29.80,WSW,248,11.5,11.5,39,0.00,CLR,,0.00,WeatherDisplay:10.37,2013-05-13 15:30:00,
2013-05-13 11:31:00,76.3,50.2,29.80,SW,225,18.8,18.8,40,0.00,CLR,,0.00,WeatherDisplay:10.37,2013-05-13 15:31:00,
2013-05-13 11:32:00,76.1,47.9,29.80,SW,225,20.7,20.7,37,0.00,CLR,,0.00,WeatherDisplay:10.37,2013-05-13 15:32:00,
2013-05-13 11:33:00,75.6,50.2,29.80,SW,225,9.2,9.2,41,0.00,CLR,,0.00,WeatherDisplay:10.37,2013-05-13 15:33:00,
2013-05-13 11:35:00,75.0,47.0,29.80,South,180,13.8,13.8,37,0.00,CLR,,0.00,WeatherDisplay:10.37,2013-05-13 15:35:00,
2013-05-13 11:36:00,74.8,48.2,29.80,SSW,202,13.8,13.8,39,0.00,CLR,,0.00,WeatherDisplay:10.37,2013-05-13 15:36:00,
2013-05-13 11:38:00,74.8,48.2,29.80,SE,135,8.1,8.1,39,0.00,CLR,,0.00,WeatherDisplay:10.37,2013-05-13 15:38:00,
2013-05-13 11:40:00,75.4,49.4,29.80,SW,214,9.0,0.0,40,0.00,CLR,,0.00,WeatherDisplay:10.37,2013-05-13 15:40:00,
2013-05-13 11:41:00,75.4,49.4,29.80,SW,225,9.2,9.8,40,0.00,CLR,,0.00,WeatherDisplay:10.37,2013-05-13 15:41:00,
2013-05-13 11:42:00,75.6,48.9,29.80,SW,225,6.3,6.3,39,0.00,CLR,,0.00,WeatherDisplay:10.37,2013-05-13 15:42:00,
2013-05-13 11:43:00,75.7,49.0,29.80,SW,225,3.5,3.5,39,0.00,CLR,,0.00,WeatherDisplay:10.37,2013-05-13 15:43:00,
2013-05-13 11:45:00,75.6,48.9,29.80,SW,225,11.5,11.5,39,0.00,CLR,,0.00,WeatherDisplay:10.37,2013-05-13 15:45:00,
2013-05-13 11:46:00,75.4,50.0,29.80,SW,225,16.1,16.1,41,0.00,CLR,,0.00,WeatherDisplay:10.37,2013-05-13 15:46:00,
2013-05-13 11:47:00,75.4,50.0,29.80,SW,225,9.2,9.2,41,0.00,CLR,,0.00,WeatherDisplay:10.37,2013-05-13 15:47:00,
2013-05-13 11:48:00,75.7,52.3,29.80,West,270,2.3,2.3,44,0.00,CLR,,0.00,WeatherDisplay:10.37,2013-05-13 15:48:00,
2013-05-13 11:49:00,75.7,52.3,29.80,West,270,2.3,2.3,44,0.00,CLR,,0.00,WeatherDisplay:10.37,2013-05-13 15:49:00,
2013-05-13 11:52:00,75.7,49.0,29.80,SSW,202,17.3,17.3,39,0.00,CLR,,0.00,WeatherDisplay:10.37,2013-05-13 15:52:00,
2013-05-13 11:53:00,75.2,48.5,29.80,SSW,202,8.1,8.1,39,0.00,CLR,,0.00,WeatherDisplay:10.37,2013-05-13 15:53:00,
2013-05-13 11:57:00,75.6,50.9,29.79,SSE,158,0.4,0.4,42,0.00,CLR,,0.00,WeatherDisplay:10.37,2013-05-13 15:57:00,
2013-05-13 11:58:00,76.1,51.3,29.80,WSW,248,8.1,8.1,42,0.00,CLR,,0.00,WeatherDisplay:10.37,2013-05-13 15:58:00,
2013-05-13 11:59:00,76.3,50.8,29.80,SW,225,9.2,9.2,41,0.00,CLR,,0.00,WeatherDisplay:10.37,2013-05-13 15:59:00,
2013-05-13 12:02:00,75.9,49.2,29.80,West,270,11.5,11.5,39,0.00,CLR,,0.00,WeatherDisplay:10.37,2013-05-13 16:02:00,
2013-05-13 12:03:00,75.9,49.2,29.80,SSW,202,11.5,11.5,39,0.00,CLR,,0.00,WeatherDisplay:10.37,2013-05-13 16:03:00,
2013-05-13 12:04:00,75.9,48.5,29.80,WSW,248,10.5,10.5,38,0.00,CLR,,0.00,WeatherDisplay:10.37,2013-05-13 16:04:00,
2013-05-13 12:05:00,75.9,50.5,29.79,SW,225,16.1,16.1,41,0.00,CLR,,0.00,WeatherDisplay:10.37,2013-05-13 16:05:00,
2013-05-13 12:08:00,75.4,51.3,29.79,WSW,248,17.3,17.3,43,0.00,CLR,,0.00,WeatherDisplay:10.37,2013-05-13 16:08:00,
2013-05-13 12:09:00,75.4,50.0,29.79,SW,225,11.5,11.5,41,0.00,CLR,,0.00,WeatherDisplay:10.37,2013-05-13 16:09:00,
2013-05-13 12:10:00,75.4,50.7,29.79,West,270,11.5,11.5,42,0.00,CLR,,0.00,WeatherDisplay:10.37,2013-05-13 16:10:00,
2013-05-13 12:11:00,75.4,51.9,29.79,WSW,248,9.4,9.4,44,0.00,CLR,,0.00,WeatherDisplay:10.37,2013-05-13 16:11:00,
2013-05-13 12:14:00,76.3,52.1,29.79,WSW,248,1.2,1.2,43,0.00,CLR,,0.00,WeatherDisplay:10.37,2013-05-13 16:14:00,
2013-05-13 12:15:00,76.3,52.1,29.79,WSW,248,1.2,1.2,43,0.00,CLR,,0.00,WeatherDisplay:10.37,2013-05-13 16:15:00,
2013-05-13 12:16:00,76.6,51.2,29.79,SSW,202,17.3,17.3,41,0.00,CLR,,0.00,WeatherDisplay:10.37,2013-05-13 16:16:00,
2013-05-13 12:19:00,76.6,50.5,29.79,South,180,8.1,8.1,40,0.00,CLR,,0.00,WeatherDisplay:10.37,2013-05-13 16:19:00,
2013-05-13 12:20:00,76.6,50.5,29.79,SSW,208,13.0,0.0,40,0.00,CLR,,0.00,WeatherDisplay:10.37,2013-05-13 16:20:00,
2013-05-13 12:21:00,76.3,48.8,29.79,SSW,202,13.8,13.8,38,0.00,CLR,,0.00,WeatherDisplay:10.37,2013-05-13 16:21:00,
2013-05-13 12:22:00,76.1,50.0,29.79,SW,225,13.8,13.8,40,0.00,CLR,,0.00,WeatherDisplay:10.37,2013-05-13 16:22:00,
2013-05-13 12:24:00,76.3,50.8,29.79,WSW,248,1.2,1.3,41,0.00,CLR,,0.00,WeatherDisplay:10.37,2013-05-13 16:24:00,
2013-05-13 12:25:00,76.3,50.8,29.79,SSW,200,1.0,0.0,41,0.00,CLR,,0.00,WeatherDisplay:10.37,2013-05-13 16:25:00,
2013-05-13 12:27:00,76.6,50.5,29.79,SSW,202,16.1,16.1,40,0.00,CLR,,0.00,WeatherDisplay:10.37,2013-05-13 16:27:00,
2013-05-13 12:30:00,76.6,52.5,29.79,SW,221,6.0,0.0,43,0.00,CLR,,0.00,WeatherDisplay:10.37,2013-05-13 16:30:00,
2013-05-13 12:31:00,76.8,53.3,29.79,SW,225,8.1,8.1,44,0.00,CLR,,0.00,WeatherDisplay:10.37,2013-05-13 16:31:00,
2013-05-13 12:33:00,77.2,51.7,29.79,SW,225,1.6,1.6,41,0.00,CLR,,0.00,WeatherDisplay:10.37,2013-05-13 16:33:00,
2013-05-13 12:35:00,77.4,51.1,29.79,SW,225,4.6,4.6,40,0.00,CLR,,0.00,WeatherDisplay:10.37,2013-05-13 16:35:00,
2013-05-13 12:36:00,77.4,51.1,29.79,SW,225,4.6,4.6,40,0.00,CLR,,0.00,WeatherDisplay:10.37,2013-05-13 16:36:00,
2013-05-13 12:38:00,77.5,53.9,29.79,SSW,202,2.5,2.5,44,0.00,CLR,,0.00,WeatherDisplay:10.37,2013-05-13 16:38:00,
2013-05-13 12:40:00,77.5,52.6,29.78,WSW,248,11.5,11.5,42,0.00,CLR,,0.00,WeatherDisplay:10.37,2013-05-13 16:40:00,
2013-05-13 12:41:00,77.5,51.3,29.78,WNW,292,11.5,11.5,40,0.00,CLR,,0.00,WeatherDisplay:10.37,2013-05-13 16:41:00,
2013-05-13 12:43:00,77.2,50.3,29.79,WNW,292,6.9,6.9,39,0.00,CLR,,0.00,WeatherDisplay:10.37,2013-05-13 16:43:00,
2013-05-13 12:44:00,77.2,53.6,29.79,West,270,9.2,9.2,44,0.00,CLR,,0.00,WeatherDisplay:10.37,2013-05-13 16:44:00,
2013-05-13 12:45:00,77.4,53.1,29.79,SW,225,11.5,11.5,43,0.00,CLR,,0.00,WeatherDisplay:10.37,2013-05-13 16:45:00,
2013-05-13 12:46:00,77.4,54.4,29.79,NW,315,11.5,11.5,45,0.00,CLR,,0.00,WeatherDisplay:10.37,2013-05-13 16:46:00,
2013-05-13 12:49:00,77.5,52.6,29.78,SSW,202,12.7,12.7,42,0.00,CLR,,0.00,WeatherDisplay:10.37,2013-05-13 16:49:00,
2013-05-13 12:51:00,77.2,51.7,29.78,SW,225,18.4,18.4,41,0.00,CLR,,0.00,WeatherDisplay:10.37,2013-05-13 16:51:00,
2013-05-13 12:54:00,76.6,52.5,29.78,West,270,16.1,16.1,43,0.00,CLR,,0.00,WeatherDisplay:10.37,2013-05-13 16:54:00,
2013-05-13 12:55:00,76.6,53.7,29.78,South,180,16.1,16.1,45,0.00,CLR,,0.00,WeatherDisplay:10.37,2013-05-13 16:55:00,
2013-05-13 12:57:00,76.6,51.8,29.78,WSW,248,9.2,9.2,42,0.00,CLR,,0.00,WeatherDisplay:10.37,2013-05-13 16:57:00,
2013-05-13 12:58:00,76.8,53.3,29.78,WSW,248,16.1,16.1,44,0.00,CLR,,0.00,WeatherDisplay:10.37,2013-05-13 16:58:00,
2013-05-13 12:59:00,76.8,52.6,29.78,SW,225,16.1,16.1,43,0.00,CLR,,0.00,WeatherDisplay:10.37,2013-05-13 16:59:00,
2013-05-13 13:00:00,77.2,52.9,29.78,SW,225,5.8,5.8,43,0.00,CLR,,0.00,WeatherDisplay:10.37,2013-05-13 17:00:00,
2013-05-13 13:02:00,77.4,55.0,29.78,WSW,248,0.4,0.4,46,0.00,CLR,,0.00,WeatherDisplay:10.37,2013-05-13 17:02:00,
2013-05-13 13:04:00,77.9,53.0,29.78,SW,225,10.4,10.4,42,0.00,CLR,,0.00,WeatherDisplay:10.37,2013-05-13 17:04:00,
2013-05-13 13:05:00,78.1,53.8,29.81,SW,225,3.5,4.0,43,0.00,CLR,,0.00,WeatherDisplay:10.37,2013-05-13 17:05:00,
2013-05-13 13:06:00,78.1,53.8,29.81,SW,225,4.0,4.0,43,0.00,CLR,,0.00,WeatherDisplay:10.37,2013-05-13 17:06:00,
2013-05-13 13:08:00,78.1,52.5,29.81,SSE,158,2.3,2.3,41,0.00,CLR,,0.00,WeatherDisplay:10.37,2013-05-13 17:08:00,
2013-05-13 13:09:00,77.9,53.0,29.77,South,180,5.8,5.8,42,0.00,CLR,,0.00,WeatherDisplay:10.37,2013-05-13 17:09:00,
2013-05-13 13:11:00,77.9,53.0,29.77,South,180,5.8,5.8,42,0.00,CLR,,0.00,WeatherDisplay:10.37,2013-05-13 17:11:00,
2013-05-13 13:13:00,77.7,55.3,29.81,WNW,292,3.5,4.0,46,0.00,CLR,,0.00,WeatherDisplay:10.37,2013-05-13 17:13:00,
2013-05-13 13:15:00,77.5,53.3,29.81,WNW,292,6.9,6.9,43,0.00,CLR,,0.00,WeatherDisplay:10.37,2013-05-13 17:15:00,
2013-05-13 13:16:00,77.5,52.0,29.81,WSW,248,3.5,3.5,41,0.00,CLR,,0.00,WeatherDisplay:10.37,2013-05-13 17:16:00,
2013-05-13 13:17:00,77.5,52.0,29.81,WSW,248,3.5,3.5,41,0.00,CLR,,0.00,WeatherDisplay:10.37,2013-05-13 17:17:00,
2013-05-13 13:18:00,77.7,52.8,29.81,SW,225,19.6,19.6,42,0.00,CLR,,0.00,WeatherDisplay:10.37,2013-05-13 17:18:00,
2013-05-13 13:21:00,77.2,52.3,29.81,WSW,248,20.7,20.7,42,0.00,CLR,,0.00,WeatherDisplay:10.37,2013-05-13 17:21:00,
2013-05-13 13:22:00,76.8,52.0,29.81,WSW,248,20.7,20.7,42,0.00,CLR,,0.00,WeatherDisplay:10.37,2013-05-13 17:22:00,
2013-05-13 13:23:00,76.8,52.6,29.81,SSW,202,16.1,16.1,43,0.00,CLR,,0.00,WeatherDisplay:10.37,2013-05-13 17:23:00,
2013-05-13 13:24:00,76.6,53.7,29.81,West,270,16.1,16.1,45,0.00,CLR,,0.00,WeatherDisplay:10.37,2013-05-13 17:24:00,
2013-05-13 13:27:00,76.6,53.1,29.78,SW,225,13.8,13.8,44,0.00,CLR,,0.00,WeatherDisplay:10.37,2013-05-13 17:27:00,
2013-05-13 13:29:00,76.6,54.3,29.81,West,270,16.1,16.1,46,0.00,CLR,,0.00,WeatherDisplay:10.37,2013-05-13 17:29:00,
2013-05-13 13:32:00,76.8,53.3,29.81,SW,225,13.8,13.8,44,0.00,CLR,,0.00,WeatherDisplay:10.37,2013-05-13 17:32:00,
2013-05-13 13:34:00,76.8,52.6,29.77,SSW,202,18.4,18.4,43,0.00,CLR,,0.00,WeatherDisplay:10.37,2013-05-13 17:34:00,
2013-05-13 13:35:00,77.2,55.4,29.77,West,270,18.4,18.4,47,0.00,CLR,,0.00,WeatherDisplay:10.37,2013-05-13 17:35:00,
2013-05-13 13:37:00,77.2,52.9,29.77,SW,225,12.7,12.7,43,0.00,CLR,,0.00,WeatherDisplay:10.37,2013-05-13 17:37:00,
2013-05-13 13:38:00,76.8,53.3,29.77,South,180,11.5,11.5,44,0.00,CLR,,0.00,WeatherDisplay:10.37,2013-05-13 17:38:00,
2013-05-13 13:39:00,76.8,55.1,29.77,SW,225,11.5,11.5,47,0.00,CLR,,0.00,WeatherDisplay:10.37,2013-05-13 17:39:00,
2013-05-13 13:40:00,76.6,52.5,29.77,West,270,11.5,11.5,43,0.00,CLR,,0.00,WeatherDisplay:10.37,2013-05-13 17:40:00,
2013-05-13 13:42:00,76.6,53.7,29.77,SW,225,11.5,11.5,45,0.00,CLR,,0.00,WeatherDisplay:10.37,2013-05-13 17:42:00,
2013-05-13 13:43:00,76.6,53.7,29.77,SW,225,11.5,11.5,45,0.00,CLR,,0.00,WeatherDisplay:10.37,2013-05-13 17:43:00,
2013-05-13 13:45:00,76.8,53.9,29.77,SW,225,8.1,8.1,45,0.00,CLR,,0.00,WeatherDisplay:10.37,2013-05-13 17:45:00,
2013-05-13 13:46:00,77.2,53.6,29.77,WSW,248,8.1,8.7,44,0.00,CLR,,0.00,WeatherDisplay:10.37,2013-05-13 17:46:00,
2013-05-13 13:48:00,77.4,53.7,29.77,SSW,202,3.5,3.5,44,0.00,CLR,,0.00,WeatherDisplay:10.37,2013-05-13 17:48:00,
2013-05-13 13:51:00,77.7,54.7,29.77,WSW,248,13.8,13.8,45,0.00,CLR,,0.00,WeatherDisplay:10.37,2013-05-13 17:51:00,
2013-05-13 13:52:00,77.7,54.1,29.77,SSW,202,9.2,9.2,44,0.00,CLR,,0.00,WeatherDisplay:10.37,2013-05-13 17:52:00,
2013-05-13 13:53:00,77.7,54.1,29.77,SSW,202,6.9,6.9,44,0.00,CLR,,0.00,WeatherDisplay:10.37,2013-05-13 17:53:00,
2013-05-13 13:54:00,77.7,55.3,29.77,SW,225,6.9,7.8,46,0.00,CLR,,0.00,WeatherDisplay:10.37,2013-05-13 17:54:00,
2013-05-13 13:56:00,77.2,54.2,29.76,WNW,292,12.1,12.1,45,0.00,CLR,,0.00,WeatherDisplay:10.37,2013-05-13 17:56:00,
2013-05-13 13:57:00,77.2,54.8,29.77,North,0,3.5,3.8,46,0.00,CLR,,0.00,WeatherDisplay:10.37,2013-05-13 17:57:00,
2013-05-13 13:58:00,77.4,54.4,29.77,SW,225,10.5,10.5,45,0.00,CLR,,0.00,WeatherDisplay:10.37,2013-05-13 17:58:00,
2013-05-13 13:59:00,77.4,54.4,29.77,SW,225,10.5,10.5,45,0.00,CLR,,0.00,WeatherDisplay:10.37,2013-05-13 17:59:00,
2013-05-13 14:01:00,77.7,54.7,29.76,West,270,13.8,13.8,45,0.00,CLR,,0.00,WeatherDisplay:10.37,2013-05-13 18:01:00,
2013-05-13 14:04:00,77.7,54.7,29.76,WNW,292,3.5,3.5,45,0.00,CLR,,0.00,WeatherDisplay:10.37,2013-05-13 18:04:00,
2013-05-13 14:05:00,78.1,57.4,29.76,NW,315,3.5,3.8,49,0.00,CLR,,0.00,WeatherDisplay:10.37,2013-05-13 18:05:00,
2013-05-13 14:07:00,78.6,58.4,29.77,West,270,2.5,2.5,50,0.00,CLR,,0.00,WeatherDisplay:10.37,2013-05-13 18:07:00,
2013-05-13 14:09:00,79.0,53.9,29.76,SSW,202,9.2,9.2,42,0.00,CLR,,0.00,WeatherDisplay:10.37,2013-05-13 18:09:00,
2013-05-13 14:10:00,78.6,52.9,29.77,WSW,257,14.0,0.0,41,0.00,CLR,,0.00,WeatherDisplay:10.37,2013-05-13 18:10:00,
2013-05-13 14:11:00,78.4,53.4,29.76,SSW,202,10.5,10.5,42,0.00,CLR,,0.00,WeatherDisplay:10.37,2013-05-13 18:11:00,
2013-05-13 14:13:00,78.1,53.8,29.76,SW,225,6.9,6.9,43,0.00,CLR,,0.00,WeatherDisplay:10.37,2013-05-13 18:13:00,
2013-05-13 14:15:00,78.3,55.8,29.76,SW,229,1.0,0.0,46,0.00,CLR,,0.00,WeatherDisplay:10.37,2013-05-13 18:15:00,
2013-05-13 14:17:00,77.7,54.1,29.76,SSW,202,14.3,14.3,44,0.00,CLR,,0.00,WeatherDisplay:10.37,2013-05-13 18:17:00,
2013-05-13 14:18:00,77.5,53.9,29.76,West,270,10.4,10.4,44,0.00,CLR,,0.00,WeatherDisplay:10.37,2013-05-13 18:18:00,
2013-05-13 14:19:00,77.4,55.0,29.76,West,270,15.0,15.0,46,0.00,CLR,,0.00,WeatherDisplay:10.37,2013-05-13 18:19:00,
2013-05-13 14:20:00,77.4,55.0,29.76,West,270,9.2,9.2,46,0.00,CLR,,0.00,WeatherDisplay:10.37,2013-05-13 18:20:00,
2013-05-13 14:21:00,77.5,55.7,29.76,SW,225,2.3,2.3,47,0.00,CLR,,0.00,WeatherDisplay:10.37,2013-05-13 18:21:00,
2013-05-13 14:22:00,77.5,55.7,29.76,SW,225,2.3,2.3,47,0.00,CLR,,0.00,WeatherDisplay:10.37,2013-05-13 18:22:00,
2013-05-13 14:24:00,77.7,55.3,29.76,South,180,12.7,12.7,46,0.00,CLR,,0.00,WeatherDisplay:10.37,2013-05-13 18:24:00,
2013-05-13 14:25:00,77.5,53.3,29.76,SW,225,13.8,13.8,43,0.00,CLR,,0.00,WeatherDisplay:10.37,2013-05-13 18:25:00,
2013-05-13 14:26:00,77.2,54.2,29.76,SSW,202,13.8,13.8,45,0.00,CLR,,0.00,WeatherDisplay:10.37,2013-05-13 18:26:00,
2013-05-13 14:28:00,76.6,52.5,29.76,SSW,202,19.6,19.6,43,0.00,CLR,,0.00,WeatherDisplay:10.37,2013-05-13 18:28:00,
2013-05-13 14:30:00,76.6,53.7,29.76,West,270,19.6,19.6,45,0.00,CLR,,0.00,WeatherDisplay:10.37,2013-05-13 18:30:00,
2013-05-13 14:31:00,76.6,52.5,29.76,SSW,202,15.0,15.0,43,0.00,CLR,,0.00,WeatherDisplay:10.37,2013-05-13 18:31:00,
2013-05-13 14:32:00,76.6,54.9,29.76,SSW,202,15.0,15.0,47,0.00,CLR,,0.00,WeatherDisplay:10.37,2013-05-13 18:32:00,
2013-05-13 14:35:00,76.8,53.3,29.76,WSW,248,10.4,11.8,44,0.00,CLR,,0.00,WeatherDisplay:10.37,2013-05-13 18:35:00,
2013-05-13 14:36:00,77.0,54.0,29.76,South,180,15.0,15.0,45,0.00,CLR,,0.00,WeatherDisplay:10.37,2013-05-13 18:36:00,
2013-05-13 14:37:00,77.0,54.6,29.76,South,180,16.8,16.8,46,0.00,CLR,,0.00,WeatherDisplay:10.37,2013-05-13 18:37:00,
2013-05-13 14:40:00,77.0,56.9,29.77,West,270,0.0,0.4,50,0.00,CLR,,0.00,WeatherDisplay:10.37,2013-05-13 18:40:00,
2013-05-13 14:42:00,77.5,55.1,29.76,West,270,10.5,10.5,46,0.00,CLR,,0.00,WeatherDisplay:10.37,2013-05-13 18:42:00,
2013-05-13 14:43:00,77.5,55.7,29.76,SW,225,10.4,10.4,47,0.00,CLR,,0.00,WeatherDisplay:10.37,2013-05-13 18:43:00,
2013-05-13 14:46:00,77.7,53.4,29.76,SW,225,6.9,9.2,43,0.00,CLR,,0.00,WeatherDisplay:10.37,2013-05-13 18:46:00,
2013-05-13 14:48:00,77.7,56.5,29.76,WSW,248,11.5,11.5,48,0.00,CLR,,0.00,WeatherDisplay:10.37,2013-05-13 18:48:00,
2013-05-13 14:49:00,77.7,56.5,29.76,WSW,248,2.7,2.7,48,0.00,CLR,,0.00,WeatherDisplay:10.37,2013-05-13 18:49:00,
2013-05-13 14:51:00,78.4,54.7,29.77,WSW,248,13.8,13.8,44,0.00,CLR,,0.00,WeatherDisplay:10.37,2013-05-13 18:51:00,
2013-05-13 14:52:00,78.3,55.2,29.77,West,270,13.8,13.8,45,0.00,CLR,,0.00,WeatherDisplay:10.37,2013-05-13 18:52:00,
2013-05-13 14:53:00,78.4,55.3,29.77,WNW,292,12.7,12.7,45,0.00,CLR,,0.00,WeatherDisplay:10.37,2013-05-13 18:53:00,
2013-05-13 14:55:00,78.4,57.1,29.76,SW,225,2.3,2.7,48,0.00,CLR,,0.00,WeatherDisplay:10.37,2013-05-13 18:55:00,
2013-05-13 14:57:00,77.9,54.2,29.76,SW,225,13.8,13.8,44,0.00,CLR,,0.00,WeatherDisplay:10.37,2013-05-13 18:57:00,
2013-05-13 14:58:00,77.9,53.0,29.76,SW,225,11.5,11.5,42,0.00,CLR,,0.00,WeatherDisplay:10.37,2013-05-13 18:58:00,
2013-05-13 14:59:00,77.7,53.4,29.76,South,180,3.5,3.5,43,0.00,CLR,,0.00,WeatherDisplay:10.37,2013-05-13 18:59:00,
2013-05-13 15:01:00,77.9,57.2,29.76,NE,45,3.5,0.0,49,0.00,CLR,,0.00,WeatherDisplay:10.37,2013-05-13 19:01:00,
2013-05-13 15:02:00,77.9,57.2,29.76,NE,45,0.0,0.0,49,0.00,CLR,,0.00,WeatherDisplay:10.37,2013-05-13 19:02:00,
2013-05-13 15:03:00,78.4,55.9,29.76,WNW,292,3.5,3.5,46,0.00,CLR,,0.00,WeatherDisplay:10.37,2013-05-13 19:03:00,
2013-05-13 15:04:00,78.4,55.9,29.76,WNW,292,3.5,3.5,46,0.00,CLR,,0.00,WeatherDisplay:10.37,2013-05-13 19:04:00,
2013-05-13 15:05:00,78.4,55.3,29.76,SW,225,13.8,13.8,45,0.00,CLR,,0.00,WeatherDisplay:10.37,2013-05-13 19:05:00,
2013-05-13 15:06:00,78.4,55.3,29.76,SW,225,15.0,15.0,45,0.00,CLR,,0.00,WeatherDisplay:10.37,2013-05-13 19:06:00,
2013-05-13 15:07:00,78.1,55.0,29.76,WSW,248,12.7,12.7,45,0.00,CLR,,0.00,WeatherDisplay:10.37,2013-05-13 19:07:00,
2013-05-13 15:08:00,78.3,57.0,29.76,West,270,7.6,7.6,48,0.00,CLR,,0.00,WeatherDisplay:10.37,2013-05-13 19:08:00,
2013-05-13 15:09:00,78.3,57.0,29.76,West,270,5.8,5.8,48,0.00,CLR,,0.00,WeatherDisplay:10.37,2013-05-13 19:09:00,
2013-05-13 15:10:00,78.4,55.3,29.76,SW,225,14.3,14.3,45,0.00,CLR,,0.00,WeatherDisplay:10.37,2013-05-13 19:10:00,
2013-05-13 15:12:00,78.3,56.4,29.76,NW,315,9.2,9.2,47,0.00,CLR,,0.00,WeatherDisplay:10.37,2013-05-13 19:12:00,
2013-05-13 15:13:00,78.4,57.1,29.77,NW,315,9.2,9.2,48,0.00,CLR,,0.00,WeatherDisplay:10.37,2013-05-13 19:13:00,
2013-05-13 15:15:00,78.4,57.7,29.76,WSW,248,11.5,11.5,49,0.00,CLR,,0.00,WeatherDisplay:10.37,2013-05-13 19:15:00,
2013-05-13 15:16:00,78.6,57.3,29.76,West,270,9.4,9.4,48,0.00,CLR,,0.00,WeatherDisplay:10.37,2013-05-13 19:16:00,
2013-05-13 15:18:00,78.6,56.7,29.77,SSW,202,2.3,2.3,47,0.00,CLR,,0.00,WeatherDisplay:10.37,2013-05-13 19:18:00,
2013-05-13 15:19:00,79.0,57.0,29.76,SSW,202,2.3,6.5,47,0.00,CLR,,0.00,WeatherDisplay:10.37,2013-05-13 19:19:00,
2013-05-13 15:20:00,79.0,57.0,29.76,NW,315,3.8,3.8,47,0.00,CLR,,0.00,WeatherDisplay:10.37,2013-05-13 19:20:00,
2013-05-13 15:21:00,79.0,57.0,29.76,NW,315,3.5,3.8,47,0.00,CLR,,0.00,WeatherDisplay:10.37,2013-05-13 19:21:00,
2013-05-13 15:22:00,79.0,54.6,29.76,West,270,4.6,4.6,43,0.00,CLR,,0.00,WeatherDisplay:10.37,2013-05-13 19:22:00,
2013-05-13 15:23:00,79.0,54.6,29.76,West,270,4.6,4.6,43,0.00,CLR,,0.00,WeatherDisplay:10.37,2013-05-13 19:23:00,
2013-05-13 15:25:00,79.0,55.8,29.76,WSW,248,1.2,1.6,45,0.00,CLR,,0.00,WeatherDisplay:10.37,2013-05-13 19:25:00,
2013-05-13 15:26:00,78.8,57.4,29.76,West,270,6.3,6.3,48,0.00,CLR,,0.00,WeatherDisplay:10.37,2013-05-13 19:26:00,
2013-05-13 15:27:00,78.6,56.7,29.76,SW,225,6.9,6.9,47,0.00,CLR,,0.00,WeatherDisplay:10.37,2013-05-13 19:27:00,
2013-05-13 15:28:00,78.6,56.1,29.76,SW,225,15.0,15.0,46,0.00,CLR,,0.00,WeatherDisplay:10.37,2013-05-13 19:28:00,
2013-05-13 15:31:00,78.6,55.5,29.76,WSW,248,11.5,11.5,45,0.00,CLR,,0.00,WeatherDisplay:10.37,2013-05-13 19:31:00,
2013-05-13 15:32:00,78.6,55.5,29.76,NNW,338,11.5,11.5,45,0.00,CLR,,0.00,WeatherDisplay:10.37,2013-05-13 19:32:00,
2013-05-13 15:33:00,78.6,56.1,29.76,NW,315,10.4,10.4,46,0.00,CLR,,0.00,WeatherDisplay:10.37,2013-05-13 19:33:00,
2013-05-13 15:34:00,78.6,56.1,29.76,WSW,248,12.7,12.7,46,0.00,CLR,,0.00,WeatherDisplay:10.37,2013-05-13 19:34:00,
2013-05-13 15:36:00,78.4,54.7,29.76,SW,225,16.1,16.1,44,0.00,CLR,,0.00,WeatherDisplay:10.37,2013-05-13 19:36:00,
2013-05-13 15:37:00,78.4,57.1,29.76,SSW,202,16.1,16.1,48,0.00,CLR,,0.00,WeatherDisplay:10.37,2013-05-13 19:37:00,
2013-05-13 15:38:00,78.4,54.1,29.78,SSW,202,21.9,21.9,43,0.00,CLR,,0.00,WeatherDisplay:10.37,2013-05-13 19:38:00,
2013-05-13 15:40:00,78.3,54.6,29.78,SSW,202,11.5,11.5,44,0.00,CLR,,0.00,WeatherDisplay:10.37,2013-05-13 19:40:00,
2013-05-13 15:42:00,78.1,55.0,29.78,SSW,202,2.7,2.7,45,0.00,CLR,,0.00,WeatherDisplay:10.37,2013-05-13 19:42:00,
2013-05-13 15:43:00,78.1,55.0,29.76,SSW,202,2.7,2.7,45,0.00,CLR,,0.00,WeatherDisplay:10.37,2013-05-13 19:43:00,
2013-05-13 15:46:00,78.4,55.9,29.76,SW,225,10.4,10.4,46,0.00,CLR,,0.00,WeatherDisplay:10.37,2013-05-13 19:46:00,
2013-05-13 15:47:00,78.4,55.9,29.76,WSW,248,16.1,16.1,46,0.00,CLR,,0.00,WeatherDisplay:10.37,2013-05-13 19:47:00,
2013-05-13 15:48:00,78.4,54.7,29.76,South,180,9.2,9.2,44,0.00,CLR,,0.00,WeatherDisplay:10.37,2013-05-13 19:48:00,
2013-05-13 15:49:00,78.6,57.3,29.76,NW,315,10.5,10.5,48,0.00,CLR,,0.00,WeatherDisplay:10.37,2013-05-13 19:49:00,
2013-05-13 15:52:00,78.6,56.7,29.76,East,90,0.0,0.4,47,0.00,CLR,,0.00,WeatherDisplay:10.37,2013-05-13 19:52:00,
2013-05-13 15:53:00,78.6,56.7,29.75,WSW,248,2.3,2.3,47,0.00,CLR,,0.00,WeatherDisplay:10.37,2013-05-13 19:53:00,
2013-05-13 15:54:00,78.6,56.7,29.75,WSW,248,2.3,2.3,47,0.00,CLR,,0.00,WeatherDisplay:10.37,2013-05-13 19:54:00,
2013-05-13 15:55:00,78.8,58.0,29.78,SW,225,2.3,4.0,49,0.00,CLR,,0.00,WeatherDisplay:10.37,2013-05-13 19:55:00,
2013-05-13 15:57:00,79.2,57.2,29.78,West,270,3.5,4.0,47,0.00,CLR,,0.00,WeatherDisplay:10.37,2013-05-13 19:57:00,
2013-05-13 15:58:00,79.2,57.2,29.78,West,270,4.0,4.0,47,0.00,CLR,,0.00,WeatherDisplay:10.37,2013-05-13 19:58:00,
2013-05-13 15:59:00,79.2,57.2,29.78,West,270,4.0,4.0,47,0.00,CLR,,0.00,WeatherDisplay:10.37,2013-05-13 19:59:00,
2013-05-13 16:00:00,79.0,55.2,29.78,WSW,248,4.6,4.6,44,0.00,CLR,,0.00,WeatherDisplay:10.37,2013-05-13 20:00:00,
2013-05-13 16:02:00,78.8,58.0,29.76,SSW,202,0.0,0.0,49,0.00,CLR,,0.00,WeatherDisplay:10.37,2013-05-13 20:02:00,
2013-05-13 16:03:00,78.8,58.0,29.76,SSW,202,0.0,0.0,49,0.00,CLR,,0.00,WeatherDisplay:10.37,2013-05-13 20:03:00,
2013-05-13 16:04:00,79.2,55.4,29.76,South,180,13.2,13.2,44,0.00,CLR,,0.00,WeatherDisplay:10.37,2013-05-13 20:04:00,
2013-05-13 16:05:00,79.2,55.4,29.75,SSW,202,12.7,12.7,44,0.00,CLR,,0.00,WeatherDisplay:10.37,2013-05-13 20:05:00,
2013-05-13 16:07:00,79.0,55.2,29.75,SSW,202,2.3,2.7,44,0.00,CLR,,0.00,WeatherDisplay:10.37,2013-05-13 20:07:00,
2013-05-13 16:08:00,78.6,56.7,29.75,SW,225,9.4,9.4,47,0.00,CLR,,0.00,WeatherDisplay:10.37,2013-05-13 20:08:00,
2013-05-13 16:09:00,78.6,57.3,29.75,WSW,248,5.8,5.8,48,0.00,CLR,,0.00,WeatherDisplay:10.37,2013-05-13 20:09:00,
2013-05-13 16:10:00,78.8,56.3,29.75,SSW,202,10.4,10.4,46,0.00,CLR,,0.00,WeatherDisplay:10.37,2013-05-13 20:10:00,
2013-05-13 16:13:00,79.0,57.6,29.75,WSW,248,2.3,2.7,48,0.00,CLR,,0.00,WeatherDisplay:10.37,2013-05-13 20:13:00,
2013-05-13 16:14:00,79.0,57.6,29.75,WSW,248,2.3,2.7,48,0.00,CLR,,0.00,WeatherDisplay:10.37,2013-05-13 20:14:00,
2013-05-13 16:15:00,79.0,55.8,29.75,South,180,6.9,6.9,45,0.00,CLR,,0.00,WeatherDisplay:10.37,2013-05-13 20:15:00,
2013-05-13 16:16:00,79.0,58.2,29.75,South,180,8.7,8.7,49,0.00,CLR,,0.00,WeatherDisplay:10.37,2013-05-13 20:16:00,
2013-05-13 16:19:00,78.6,57.3,29.75,WSW,248,8.1,8.1,48,0.00,CLR,,0.00,WeatherDisplay:10.37,2013-05-13 20:19:00,
2013-05-13 16:20:00,78.6,56.1,29.75,South,180,8.1,8.1,46,0.00,CLR,,0.00,WeatherDisplay:10.37,2013-05-13 20:20:00,
2013-05-13 16:21:00,79.0,57.0,29.75,WSW,248,8.1,8.1,47,0.00,CLR,,0.00,WeatherDisplay:10.37,2013-05-13 20:21:00,
2013-05-13 16:25:00,79.3,56.2,29.75,SSW,194,5.0,0.0,45,0.00,CLR,,0.00,WeatherDisplay:10.37,2013-05-13 20:25:00,
2013-05-13 16:26:00,79.5,55.7,29.74,SSW,202,8.0,8.0,44,0.00,CLR,,0.00,WeatherDisplay:10.37,2013-05-13 20:26:00,
2013-05-13 16:30:00,79.9,57.3,29.75,SSW,202,9.2,9.2,46,0.00,CLR,,0.00,WeatherDisplay:10.37,2013-05-13 20:30:00,
2013-05-13 16:31:00,79.9,56.0,29.74,SSW,202,11.5,11.5,44,0.00,CLR,,0.00,WeatherDisplay:10.37,2013-05-13 20:31:00,
2013-05-13 16:32:00,79.7,55.2,29.74,SSW,202,16.5,16.5,43,0.00,CLR,,0.00,WeatherDisplay:10.37,2013-05-13 20:32:00,
2013-05-13 16:36:00,79.3,55.5,29.74,SSW,202,17.3,17.3,44,0.00,CLR,,0.00,WeatherDisplay:10.37,2013-05-13 20:36:00,
2013-05-13 16:37:00,79.2,56.0,29.74,SSW,202,13.8,13.8,45,0.00,CLR,,0.00,WeatherDisplay:10.37,2013-05-13 20:37:00,
2013-05-13 16:41:00,79.0,55.8,29.74,WSW,248,5.8,5.8,45,0.00,CLR,,0.00,WeatherDisplay:10.37,2013-05-13 20:41:00,
2013-05-13 16:42:00,79.2,56.0,29.74,NNW,338,6.3,6.3,45,0.00,CLR,,0.00,WeatherDisplay:10.37,2013-05-13 20:42:00,
2013-05-13 16:43:00,79.3,59.1,29.73,West,270,2.3,2.3,50,0.00,CLR,,0.00,WeatherDisplay:10.37,2013-05-13 20:43:00,
2013-05-13 16:47:00,79.9,57.8,29.74,South,180,6.9,6.9,47,0.00,CLR,,0.00,WeatherDisplay:10.37,2013-05-13 20:47:00,
2013-05-13 16:48:00,80.2,57.6,29.74,SSW,202,10.4,10.4,46,0.00,CLR,,0.00,WeatherDisplay:10.37,2013-05-13 20:48:00,
2013-05-13 16:52:00,80.2,59.3,29.73,West,270,4.6,4.6,49,0.00,CLR,,0.00,WeatherDisplay:10.37,2013-05-13 20:52:00,
2013-05-13 16:53:00,80.2,59.3,29.74,West,270,4.6,4.6,49,0.00,CLR,,0.00,WeatherDisplay:10.37,2013-05-13 20:53:00,
2013-05-13 16:55:00,79.9,54.7,29.74,SW,225,15.0,15.0,42,0.00,CLR,,0.00,WeatherDisplay:10.37,2013-05-13 20:55:00,
2013-05-13 16:57:00,79.7,57.1,29.74,SSW,202,12.7,12.7,46,0.00,CLR,,0.00,WeatherDisplay:10.37,2013-05-13 20:57:00,
2013-05-13 16:58:00,79.5,57.5,29.74,WSW,248,12.7,12.7,47,0.00,CLR,,0.00,WeatherDisplay:10.37,2013-05-13 20:58:00,
2013-05-13 17:01:00,79.9,57.3,29.73,WNW,292,2.3,2.3,46,0.00,CLR,,0.00,WeatherDisplay:10.37,2013-05-13 21:01:00,
2013-05-13 17:02:00,80.1,56.8,29.73,WSW,248,4.6,4.6,45,0.00,CLR,,0.00,WeatherDisplay:10.37,2013-05-13 21:02:00,
2013-05-13 17:03:00,80.1,56.8,29.73,WSW,248,4.6,4.6,45,0.00,CLR,,0.00,WeatherDisplay:10.37,2013-05-13 21:03:00,
2013-05-13 17:04:00,80.2,57.0,29.73,WNW,292,7.6,7.6,45,0.00,CLR,,0.00,WeatherDisplay:10.37,2013-05-13 21:04:00,
2013-05-13 17:06:00,80.2,57.6,29.73,WNW,292,3.8,3.8,46,0.00,CLR,,0.00,WeatherDisplay:10.37,2013-05-13 21:06:00,
2013-05-13 17:08:00,80.4,55.9,29.73,SW,225,0.0,0.0,43,0.00,CLR,,0.00,WeatherDisplay:10.37,2013-05-13 21:08:00,
2013-05-13 17:09:00,80.8,56.2,29.73,WSW,248,4.6,4.6,43,0.00,CLR,,0.00,WeatherDisplay:10.37,2013-05-13 21:09:00,
2013-05-13 17:11:00,80.8,56.8,29.73,WSW,248,6.3,6.3,44,0.00,CLR,,0.00,WeatherDisplay:10.37,2013-05-13 21:11:00,
2013-05-13 17:13:00,80.8,57.5,29.73,NNE,22,2.3,2.3,45,0.00,CLR,,0.00,WeatherDisplay:10.37,2013-05-13 21:13:00,
2013-05-13 17:14:00,80.8,57.5,29.73,WNW,292,0.0,0.0,45,0.00,CLR,,0.00,WeatherDisplay:10.37,2013-05-13 21:14:00,
2013-05-13 17:16:00,80.8,57.5,29.73,South,180,0.0,9.8,45,0.00,CLR,,0.00,WeatherDisplay:10.37,2013-05-13 21:16:00,
2013-05-13 17:18:00,80.8,57.5,29.73,SW,225,2.3,2.3,45,0.00,CLR,,0.00,WeatherDisplay:10.37,2013-05-13 21:18:00,
2013-05-13 17:19:00,80.8,57.5,29.73,SW,225,2.3,2.3,45,0.00,CLR,,0.00,WeatherDisplay:10.37,2013-05-13 21:19:00,
2013-05-13 17:21:00,80.8,58.1,29.73,WSW,248,9.2,9.2,46,0.00,CLR,,0.00,WeatherDisplay:10.37,2013-05-13 21:21:00,
2013-05-13 17:23:00,80.8,58.1,29.73,SW,225,13.8,13.8,46,0.00,CLR,,0.00,WeatherDisplay:10.37,2013-05-13 21:23:00,
2013-05-13 17:24:00,80.8,58.1,29.73,SW,225,6.9,6.9,46,0.00,CLR,,0.00,WeatherDisplay:10.37,2013-05-13 21:24:00,
2013-05-13 17:25:00,80.6,57.9,29.73,West,270,6.9,6.9,46,0.00,CLR,,0.00,WeatherDisplay:10.37,2013-05-13 21:25:00,
2013-05-13 17:26:00,80.6,56.0,29.73,SW,225,12.7,12.7,43,0.00,CLR,,0.00,WeatherDisplay:10.37,2013-05-13 21:26:00,
2013-05-13 17:29:00,80.8,56.8,29.73,SSW,202,7.2,7.2,44,0.00,CLR,,0.00,WeatherDisplay:10.37,2013-05-13 21:29:00,
2013-05-13 17:30:00,80.8,58.1,29.73,SW,225,2.3,2.3,46,0.00,CLR,,0.00,WeatherDisplay:10.37,2013-05-13 21:30:00,
2013-05-13 17:31:00,80.8,57.5,29.73,SW,225,13.4,13.4,45,0.00,CLR,,0.00,WeatherDisplay:10.37,2013-05-13 21:31:00,
2013-05-13 17:34:00,80.2,57.0,29.73,SW,225,12.7,12.7,45,0.00,CLR,,0.00,WeatherDisplay:10.37,2013-05-13 21:34:00,
2013-05-13 17:35:00,80.2,57.6,29.73,SSW,202,10.4,10.4,46,0.00,CLR,,0.00,WeatherDisplay:10.37,2013-05-13 21:35:00,
2013-05-13 17:36:00,80.2,56.3,29.73,SW,225,3.8,3.8,44,0.00,CLR,,0.00,WeatherDisplay:10.37,2013-05-13 21:36:00,
2013-05-13 17:37:00,80.2,56.3,29.73,SW,225,3.5,3.8,44,0.00,CLR,,0.00,WeatherDisplay:10.37,2013-05-13 21:37:00,
2013-05-13 17:40:00,80.2,57.0,29.75,West,270,1.6,1.6,45,0.00,CLR,,0.00,WeatherDisplay:10.37,2013-05-13 21:40:00,
2013-05-13 17:41:00,80.2,57.0,29.75,West,270,1.6,1.6,45,0.00,CLR,,0.00,WeatherDisplay:10.37,2013-05-13 21:41:00,
2013-05-13 17:42:00,80.2,56.3,29.73,SW,225,4.6,4.7,44,0.00,CLR,,0.00,WeatherDisplay:10.37,2013-05-13 21:42:00,
2013-05-13 17:46:00,80.2,57.6,29.75,SW,225,8.1,8.1,46,0.00,CLR,,0.00,WeatherDisplay:10.37,2013-05-13 21:46:00,
2013-05-13 17:47:00,80.2,57.0,29.75,WSW,248,13.8,13.8,45,0.00,CLR,,0.00,WeatherDisplay:10.37,2013-05-13 21:47:00,
2013-05-13 17:48:00,80.2,57.6,29.75,SSW,202,15.6,15.6,46,0.00,CLR,,0.00,WeatherDisplay:10.37,2013-05-13 21:48:00,
2013-05-13 17:51:00,80.2,56.3,29.72,SW,225,8.1,8.1,44,0.00,CLR,,0.00,WeatherDisplay:10.37,2013-05-13 21:51:00,
2013-05-13 17:53:00,80.2,58.8,29.75,SW,225,2.7,2.7,48,0.00,CLR,,0.00,WeatherDisplay:10.37,2013-05-13 21:53:00,
2013-05-13 17:55:00,80.4,58.3,29.72,SW,235,0.0,0.0,47,0.00,CLR,,0.00,WeatherDisplay:10.37,2013-05-13 21:55:00,
2013-05-13 17:56:00,80.2,58.2,29.72,WSW,248,11.5,11.5,47,0.00,CLR,,0.00,WeatherDisplay:10.37,2013-05-13 21:56:00,
2013-05-13 17:57:00,80.2,57.6,29.72,NW,315,9.2,9.2,46,0.00,CLR,,0.00,WeatherDisplay:10.37,2013-05-13 21:57:00,
2013-05-13 17:58:00,80.2,58.2,29.72,SSW,202,3.5,3.6,47,0.00,CLR,,0.00,WeatherDisplay:10.37,2013-05-13 21:58:00,
2013-05-13 18:01:00,80.1,58.0,29.72,WSW,248,6.9,6.9,47,0.00,CLR,,0.00,WeatherDisplay:10.37,2013-05-13 22:01:00,
2013-05-13 18:02:00,80.1,58.6,29.72,North,0,6.9,6.9,48,0.00,CLR,,0.00,WeatherDisplay:10.37,2013-05-13 22:02:00,
2013-05-13 18:03:00,80.1,58.6,29.72,North,0,2.3,2.3,48,0.00,CLR,,0.00,WeatherDisplay:10.37,2013-05-13 22:03:00,
2013-05-13 18:07:00,80.2,57.6,29.72,SW,225,3.5,3.5,46,0.00,CLR,,0.00,WeatherDisplay:10.37,2013-05-13 22:07:00,
2013-05-13 18:09:00,80.2,58.2,29.72,WSW,248,2.3,2.7,47,0.00,CLR,,0.00,WeatherDisplay:10.37,2013-05-13 22:09:00,
2013-05-13 18:11:00,80.2,57.6,29.72,WNW,292,3.6,3.6,46,0.00,CLR,,0.00,WeatherDisplay:10.37,2013-05-13 22:11:00,
2013-05-13 18:12:00,80.2,57.6,29.72,WNW,292,3.5,3.6,46,0.00,CLR,,0.00,WeatherDisplay:10.37,2013-05-13 22:12:00,
2013-05-13 18:14:00,80.4,57.1,29.72,SW,225,11.5,11.5,45,0.00,CLR,,0.00,WeatherDisplay:10.37,2013-05-13 22:14:00,
2013-05-13 18:15:00,80.4,58.3,29.72,West,270,10.4,10.4,47,0.00,CLR,,0.00,WeatherDisplay:10.37,2013-05-13 22:15:00,
2013-05-13 18:17:00,80.4,57.1,29.72,WSW,248,6.9,6.9,45,0.00,CLR,,0.00,WeatherDisplay:10.37,2013-05-13 22:17:00,
2013-05-13 18:19:00,80.4,57.7,29.72,WSW,248,1.2,1.3,46,0.00,CLR,,0.00,WeatherDisplay:10.37,2013-05-13 22:19:00,
2013-05-13 18:20:00,80.4,58.3,29.72,West,270,2.7,2.7,47,0.00,CLR,,0.00,WeatherDisplay:10.37,2013-05-13 22:20:00,
2013-05-13 18:23:00,80.8,58.1,29.72,West,270,2.5,2.5,46,0.00,CLR,,0.00,WeatherDisplay:10.37,2013-05-13 22:23:00,
2013-05-13 18:24:00,80.8,58.1,29.72,SE,135,0.0,0.0,46,0.00,CLR,,0.00,WeatherDisplay:10.37,2013-05-13 22:24:00,
2013-05-13 18:25:00,80.8,58.1,29.72,WSW,249,0.0,0.0,46,0.00,CLR,,0.00,WeatherDisplay:10.37,2013-05-13 22:25:00,
2013-05-13 18:28:00,80.4,58.3,29.72,WSW,248,1.2,1.6,47,0.00,CLR,,0.00,WeatherDisplay:10.37,2013-05-13 22:28:00,
2013-05-13 18:30:00,80.4,57.7,29.72,SW,225,1.6,1.6,46,0.00,CLR,,0.00,WeatherDisplay:10.37,2013-05-13 22:30:00,
2013-05-13 18:31:00,80.4,57.7,29.72,SW,225,1.6,1.6,46,0.00,CLR,,0.00,WeatherDisplay:10.37,2013-05-13 22:31:00,
2013-05-13 18:33:00,80.2,57.0,29.72,SSW,202,10.4,10.4,45,0.00,CLR,,0.00,WeatherDisplay:10.37,2013-05-13 22:33:00,
2013-05-13 18:35:00,80.2,57.6,29.72,WSW,248,10.4,10.4,46,0.00,CLR,,0.00,WeatherDisplay:10.37,2013-05-13 22:35:00,
2013-05-13 18:37:00,80.2,57.6,29.72,WSW,248,6.9,6.9,46,0.00,CLR,,0.00,WeatherDisplay:10.37,2013-05-13 22:37:00,
2013-05-13 18:38:00,79.9,57.3,29.72,WNW,292,16.8,16.8,46,0.00,CLR,,0.00,WeatherDisplay:10.37,2013-05-13 22:38:00,
2013-05-13 18:40:00,79.7,55.9,29.72,WSW,248,17.3,17.3,44,0.00,CLR,,0.00,WeatherDisplay:10.37,2013-05-13 22:40:00,
2013-05-13 18:41:00,79.7,55.9,29.72,SW,225,9.2,9.2,44,0.00,CLR,,0.00,WeatherDisplay:10.37,2013-05-13 22:41:00,
2013-05-13 18:42:00,79.7,57.1,29.72,WSW,248,9.2,9.2,46,0.00,CLR,,0.00,WeatherDisplay:10.37,2013-05-13 22:42:00,
2013-05-13 18:43:00,79.9,57.8,29.72,WSW,248,2.3,0.0,47,0.00,CLR,,0.00,WeatherDisplay:10.37,2013-05-13 22:43:00,
2013-05-13 18:44:00,79.9,57.8,29.72,WSW,248,0.0,0.0,47,0.00,CLR,,0.00,WeatherDisplay:10.37,2013-05-13 22:44:00,
2013-05-13 18:45:00,79.9,57.8,29.72,WSW,251,0.0,0.0,47,0.00,CLR,,0.00,WeatherDisplay:10.37,2013-05-13 22:45:00,
2013-05-13 18:46:00,79.9,57.8,29.71,West,270,3.5,4.0,47,0.00,CLR,,0.00,WeatherDisplay:10.37,2013-05-13 22:46:00,
2013-05-13 18:47:00,79.9,57.8,29.72,West,270,3.5,4.0,47,0.00,CLR,,0.00,WeatherDisplay:10.37,2013-05-13 22:47:00,
2013-05-13 18:49:00,80.1,58.0,29.72,NW,315,1.2,1.6,47,0.00,CLR,,0.00,WeatherDisplay:10.37,2013-05-13 22:49:00,
2013-05-13 18:50:00,80.1,58.0,29.71,West,276,10.0,0.0,47,0.00,CLR,,0.00,WeatherDisplay:10.37,2013-05-13 22:50:00,
2013-05-13 18:52:00,80.1,58.0,29.71,South,180,3.5,3.5,47,0.00,CLR,,0.00,WeatherDisplay:10.37,2013-05-13 22:52:00,
2013-05-13 18:55:00,80.2,59.3,29.71,South,180,4.0,4.0,49,0.00,CLR,,0.00,WeatherDisplay:10.37,2013-05-13 22:55:00,
2013-05-13 18:56:00,80.2,57.6,29.71,WSW,248,13.6,13.6,46,0.00,CLR,,0.00,WeatherDisplay:10.37,2013-05-13 22:56:00,
2013-05-13 18:57:00,79.9,56.6,29.71,SW,225,17.0,17.0,45,0.00,CLR,,0.00,WeatherDisplay:10.37,2013-05-13 22:57:00,
2013-05-13 18:58:00,79.9,56.6,29.71,SW,225,17.3,17.3,45,0.00,CLR,,0.00,WeatherDisplay:10.37,2013-05-13 22:58:00,
2013-05-13 19:00:00,79.7,57.7,29.71,WSW,248,6.9,6.9,47,0.00,CLR,,0.00,WeatherDisplay:10.37,2013-05-13 23:00:00,
2013-05-13 19:01:00,79.7,57.7,29.71,West,270,6.9,6.9,47,0.00,CLR,,0.00,WeatherDisplay:10.37,2013-05-13 23:01:00,
2013-05-13 19:03:00,79.7,57.7,29.71,West,270,3.5,4.0,47,0.00,CLR,,0.00,WeatherDisplay:10.37,2013-05-13 23:03:00,
2013-05-13 19:04:00,79.7,57.1,29.71,SSW,202,10.7,10.7,46,0.00,CLR,,0.00,WeatherDisplay:10.37,2013-05-13 23:04:00,
2013-05-13 19:06:00,79.7,57.1,29.72,SW,225,11.5,11.5,46,0.00,CLR,,0.00,WeatherDisplay:10.37,2013-05-13 23:06:00,
2013-05-13 19:07:00,79.7,57.1,29.71,WSW,248,13.2,13.2,46,0.00,CLR,,0.00,WeatherDisplay:10.37,2013-05-13 23:07:00,
2013-05-13 19:09:00,79.7,58.3,29.71,South,180,3.5,3.5,48,0.00,CLR,,0.00,WeatherDisplay:10.37,2013-05-13 23:09:00,
2013-05-13 19:11:00,79.7,57.7,29.72,WSW,248,0.0,0.0,47,0.00,CLR,,0.00,WeatherDisplay:10.37,2013-05-13 23:11:00,
2013-05-13 19:13:00,79.9,58.4,29.72,SW,225,3.5,3.5,48,0.00,CLR,,0.00,WeatherDisplay:10.37,2013-05-13 23:13:00,
2013-05-13 19:14:00,79.9,58.4,29.71,SW,225,3.5,3.5,48,0.00,CLR,,0.00,WeatherDisplay:10.37,2013-05-13 23:14:00,
2013-05-13 19:15:00,79.9,59.0,29.72,West,270,3.5,3.5,49,0.00,CLR,,0.00,WeatherDisplay:10.37,2013-05-13 23:15:00,
2013-05-13 19:16:00,79.9,59.0,29.72,West,270,2.3,2.3,49,0.00,CLR,,0.00,WeatherDisplay:10.37,2013-05-13 23:16:00,
2013-05-13 19:17:00,79.9,57.3,29.72,West,270,2.3,4.9,46,0.00,CLR,,0.00,WeatherDisplay:10.37,2013-05-13 23:17:00,
2013-05-13 19:19:00,79.9,57.8,29.72,WSW,248,3.5,3.6,47,0.00,CLR,,0.00,WeatherDisplay:10.37,2013-05-13 23:19:00,
2013-05-13 19:21:00,79.9,57.8,29.71,SW,225,4.6,4.6,47,0.00,CLR,,0.00,WeatherDisplay:10.37,2013-05-13 23:21:00,
2013-05-13 19:23:00,79.9,58.4,29.72,West,270,1.2,1.3,48,0.00,CLR,,0.00,WeatherDisplay:10.37,2013-05-13 23:23:00,
2013-05-13 19:25:00,79.9,57.3,29.71,SW,225,1.2,5.4,46,0.00,CLR,,0.00,WeatherDisplay:10.37,2013-05-13 23:25:00,
2013-05-13 19:26:00,79.7,57.7,29.71,West,270,4.6,4.6,47,0.00,CLR,,0.00,WeatherDisplay:10.37,2013-05-13 23:26:00,
2013-05-13 19:27:00,79.7,57.7,29.71,West,270,4.6,4.6,47,0.00,CLR,,0.00,WeatherDisplay:10.37,2013-05-13 23:27:00,
2013-05-13 19:28:00,79.5,58.1,29.71,NW,315,3.5,3.8,48,0.00,CLR,,0.00,WeatherDisplay:10.37,2013-05-13 23:28:00,
2013-05-13 19:31:00,79.5,58.1,29.71,WSW,248,2.3,2.3,48,0.00,CLR,,0.00,WeatherDisplay:10.37,2013-05-13 23:31:00,
2013-05-13 19:32:00,79.5,58.1,29.71,WSW,248,2.3,0.0,48,0.00,CLR,,0.00,WeatherDisplay:10.37,2013-05-13 23:32:00,
2013-05-13 19:33:00,79.5,58.1,29.71,WSW,248,0.0,0.0,48,0.00,CLR,,0.00,WeatherDisplay:10.37,2013-05-13 23:33:00,
2013-05-13 19:34:00,79.5,58.1,29.71,WSW,248,0.0,0.0,48,0.00,CLR,,0.00,WeatherDisplay:10.37,2013-05-13 23:34:00,
2013-05-13 19:37:00,79.5,58.1,29.71,West,270,0.0,0.0,48,0.00,CLR,,0.00,WeatherDisplay:10.37,2013-05-13 23:37:00,
2013-05-13 19:38:00,79.5,58.1,29.71,West,270,0.0,0.0,48,0.00,CLR,,0.00,WeatherDisplay:10.37,2013-05-13 23:38:00,
2013-05-13 19:39:00,79.3,58.5,29.71,NW,315,2.5,2.5,49,0.00,CLR,,0.00,WeatherDisplay:10.37,2013-05-13 23:39:00,
2013-05-13 19:42:00,79.3,57.9,29.71,West,270,8.1,8.1,48,0.00,CLR,,0.00,WeatherDisplay:10.37,2013-05-13 23:42:00,
2013-05-13 19:43:00,79.3,57.9,29.71,West,270,2.3,2.5,48,0.00,CLR,,0.00,WeatherDisplay:10.37,2013-05-13 23:43:00,
2013-05-13 19:44:00,79.3,57.9,29.71,West,270,2.3,2.5,48,0.00,CLR,,0.00,WeatherDisplay:10.37,2013-05-13 23:44:00,
2013-05-13 19:45:00,79.2,57.8,29.71,WSW,248,10.7,10.7,48,0.00,CLR,,0.00,WeatherDisplay:10.37,2013-05-13 23:45:00,
2013-05-13 19:47:00,79.0,57.6,29.71,SW,225,6.9,6.9,48,0.00,CLR,,0.00,WeatherDisplay:10.37,2013-05-13 23:47:00,
2013-05-13 19:48:00,79.0,58.2,29.71,WSW,248,7.6,7.6,49,0.00,CLR,,0.00,WeatherDisplay:10.37,2013-05-13 23:48:00,
2013-05-13 19:49:00,79.0,58.2,29.71,WSW,248,3.5,4.0,49,0.00,CLR,,0.00,WeatherDisplay:10.37,2013-05-13 23:49:00,
2013-05-13 19:50:00,79.0,58.2,29.71,WSW,248,4.0,4.0,49,0.00,CLR,,0.00,WeatherDisplay:10.37,2013-05-13 23:50:00,
2013-05-13 19:52:00,79.0,58.2,29.71,West,270,3.5,3.5,49,0.00,CLR,,0.00,WeatherDisplay:10.37,2013-05-13 23:52:00,
2013-05-13 19:54:00,78.6,57.9,29.71,SSW,202,4.6,4.7,49,0.00,CLR,,0.00,WeatherDisplay:10.37,2013-05-13 23:54:00,
2013-05-13 19:55:00,78.8,58.0,29.71,SW,225,4.6,4.6,49,0.00,CLR,,0.00,WeatherDisplay:10.37,2013-05-13 23:55:00,
2013-05-13 19:58:00,78.6,58.4,29.71,WSW,248,0.0,0.0,50,0.00,CLR,,0.00,WeatherDisplay:10.37,2013-05-13 23:58:00,
2013-05-13 19:59:00,78.6,57.9,29.71,SSW,202,1.2,1.2,49,0.00,CLR,,0.00,WeatherDisplay:10.37,2013-05-13 23:59:00,
2013-05-13 20:00:00,78.6,57.9,29.71,SSW,202,1.2,1.2,49,0.00,CLR,,0.00,WeatherDisplay:10.37,2013-05-14 00:00:00,
2013-05-13 20:01:00,78.6,57.9,29.71,SSW,202,1.2,1.2,49,0.00,CLR,,0.00,WeatherDisplay:10.37,2013-05-14 00:01:00,
2013-05-13 20:03:00,78.6,58.4,29.71,SW,225,0.0,0.0,50,0.00,CLR,,0.00,WeatherDisplay:10.37,2013-05-14 00:03:00,
2013-05-13 20:04:00,78.4,58.3,29.71,SW,225,0.0,0.0,50,0.00,CLR,,0.00,WeatherDisplay:10.37,2013-05-14 00:04:00,
2013-05-13 20:05:00,78.4,58.3,29.71,SW,225,0.0,0.0,50,0.00,CLR,,0.00,WeatherDisplay:10.37,2013-05-14 00:05:00,
2013-05-13 20:07:00,78.3,58.6,29.71,SW,225,0.0,0.0,51,0.00,CLR,,0.00,WeatherDisplay:10.37,2013-05-14 00:07:00,
2013-05-13 20:08:00,78.1,58.5,29.71,WSW,248,0.0,0.0,51,0.00,CLR,,0.00,WeatherDisplay:10.37,2013-05-14 00:08:00,
2013-05-13 20:10:00,77.9,57.8,29.71,SSW,202,0.0,0.0,50,0.00,CLR,,0.00,WeatherDisplay:10.37,2013-05-14 00:10:00,
2013-05-13 20:12:00,77.7,58.1,29.71,SSW,202,0.0,0.0,51,0.00,CLR,,0.00,WeatherDisplay:10.37,2013-05-14 00:12:00,
2013-05-13 20:13:00,77.7,58.1,29.71,SSW,202,0.0,0.0,51,0.00,CLR,,0.00,WeatherDisplay:10.37,2013-05-14 00:13:00,
2013-05-13 20:15:00,77.5,58.0,29.71,SSW,202,1.6,1.6,51,0.00,CLR,,0.00,WeatherDisplay:10.37,2013-05-14 00:15:00,
2013-05-13 20:16:00,77.5,58.0,29.71,SSW,202,1.2,1.6,51,0.00,CLR,,0.00,WeatherDisplay:10.37,2013-05-14 00:16:00,
2013-05-13 20:18:00,77.4,57.8,29.71,SSW,202,0.0,0.0,51,0.00,CLR,,0.00,WeatherDisplay:10.37,2013-05-14 00:18:00,
2013-05-13 20:20:00,77.2,57.7,29.71,SSW,202,0.0,0.0,51,0.00,CLR,,0.00,WeatherDisplay:10.37,2013-05-14 00:20:00,
2013-05-13 20:23:00,76.8,58.4,29.72,SSW,202,0.0,0.0,53,0.00,CLR,,0.00,WeatherDisplay:10.37,2013-05-14 00:23:00,
2013-05-13 20:24:00,76.8,58.4,29.72,SSW,202,0.0,0.0,53,0.00,CLR,,0.00,WeatherDisplay:10.37,2013-05-14 00:24:00,
2013-05-13 20:25:00,76.6,57.7,29.71,SSW,202,0.0,0.0,52,0.00,CLR,,0.00,WeatherDisplay:10.37,2013-05-14 00:25:00,
2013-05-13 20:27:00,76.6,58.7,29.71,SSW,202,0.0,0.0,54,0.00,CLR,,0.00,WeatherDisplay:10.37,2013-05-14 00:27:00,
2013-05-13 20:28:00,76.6,58.7,29.71,SSW,202,0.0,0.0,54,0.00,CLR,,0.00,WeatherDisplay:10.37,2013-05-14 00:28:00,
2013-05-13 20:29:00,76.6,58.7,29.71,SSW,202,0.0,0.0,54,0.00,CLR,,0.00,WeatherDisplay:10.37,2013-05-14 00:29:00,
2013-05-13 20:30:00,76.3,58.4,29.72,SSW,202,0.0,0.0,54,0.00,CLR,,0.00,WeatherDisplay:10.37,2013-05-14 00:30:00,
2013-05-13 20:32:00,76.1,58.8,29.71,SSW,202,0.0,0.0,55,0.00,CLR,,0.00,WeatherDisplay:10.37,2013-05-14 00:32:00,
2013-05-13 20:34:00,75.9,58.6,29.72,SSW,202,0.0,0.0,55,0.00,CLR,,0.00,WeatherDisplay:10.37,2013-05-14 00:34:00,
2013-05-13 20:35:00,75.9,58.6,29.71,SSW,202,0.0,0.0,55,0.00,CLR,,0.00,WeatherDisplay:10.37,2013-05-14 00:35:00,
2013-05-13 20:36:00,75.6,58.8,29.71,SSW,202,0.0,0.0,56,0.00,CLR,,0.00,WeatherDisplay:10.37,2013-05-14 00:36:00,
2013-05-13 20:38:00,75.6,58.3,29.71,SSW,202,0.0,0.0,55,0.00,CLR,,0.00,WeatherDisplay:10.37,2013-05-14 00:38:00,
2013-05-13 20:39:00,75.6,58.3,29.72,SSW,202,0.0,0.0,55,0.00,CLR,,0.00,WeatherDisplay:10.37,2013-05-14 00:39:00,
2013-05-13 20:40:00,75.4,58.6,29.72,SSW,202,0.0,0.0,56,0.00,CLR,,0.00,WeatherDisplay:10.37,2013-05-14 00:40:00,
2013-05-13 20:41:00,75.4,58.6,29.71,SSW,202,0.0,0.0,56,0.00,CLR,,0.00,WeatherDisplay:10.37,2013-05-14 00:41:00,
2013-05-13 20:45:00,74.8,58.1,29.72,SSW,202,0.0,0.0,56,0.00,CLR,,0.00,WeatherDisplay:10.37,2013-05-14 00:45:00,
2013-05-13 20:47:00,74.8,57.6,29.71,SSW,202,0.0,0.0,55,0.00,CLR,,0.00,WeatherDisplay:10.37,2013-05-14 00:47:00,
2013-05-13 20:50:00,74.7,57.9,29.71,SSW,202,0.0,0.0,56,0.00,CLR,,0.00,WeatherDisplay:10.37,2013-05-14 00:50:00,
2013-05-13 20:52:00,74.3,57.6,29.71,SSW,202,0.0,0.0,56,0.00,CLR,,0.00,WeatherDisplay:10.37,2013-05-14 00:52:00,
2013-05-13 20:53:00,74.1,58.4,29.71,SSW,202,0.0,0.0,58,0.00,CLR,,0.00,WeatherDisplay:10.37,2013-05-14 00:53:00,
2013-05-13 20:55:00,73.8,57.6,29.71,SSW,202,0.0,0.0,57,0.00,CLR,,0.00,WeatherDisplay:10.37,2013-05-14 00:55:00,
2013-05-13 20:56:00,73.8,57.6,29.71,SSW,202,0.0,0.0,57,0.00,CLR,,0.00,WeatherDisplay:10.37,2013-05-14 00:56:00,
2013-05-13 20:57:00,73.6,57.9,29.71,SSW,202,0.0,0.0,58,0.00,CLR,,0.00,WeatherDisplay:10.37,2013-05-14 00:57:00,
2013-05-13 20:58:00,73.6,57.9,29.71,SSW,202,0.0,0.0,58,0.00,CLR,,0.00,WeatherDisplay:10.37,2013-05-14 00:58:00,
2013-05-13 20:59:00,73.6,57.9,29.71,SSW,202,0.0,0.0,58,0.00,CLR,,0.00,WeatherDisplay:10.37,2013-05-14 00:59:00,
2013-05-13 21:00:00,73.2,57.6,29.71,SSW,202,0.0,0.0,58,0.00,CLR,,0.00,WeatherDisplay:10.37,2013-05-14 01:00:00,
2013-05-13 21:02:00,73.0,57.4,29.71,SSW,202,0.0,0.0,58,0.00,CLR,,0.00,WeatherDisplay:10.37,2013-05-14 01:02:00,
2013-05-13 21:03:00,73.0,57.4,29.71,SSW,202,0.0,0.0,58,0.00,CLR,,0.00,WeatherDisplay:10.37,2013-05-14 01:03:00,
2013-05-13 21:05:00,72.7,57.5,29.71,SSW,202,0.0,0.0,59,0.00,CLR,,0.00,WeatherDisplay:10.37,2013-05-14 01:05:00,
2013-05-13 21:06:00,72.5,57.4,29.71,SSW,202,0.0,0.0,59,0.00,CLR,,0.00,WeatherDisplay:10.37,2013-05-14 01:06:00,
2013-05-13 21:07:00,72.5,57.4,29.71,SSW,202,0.0,0.0,59,0.00,CLR,,0.00,WeatherDisplay:10.37,2013-05-14 01:07:00,
2013-05-13 21:10:00,72.1,57.0,29.72,SSW,202,0.0,0.0,59,0.00,CLR,,0.00,WeatherDisplay:10.37,2013-05-14 01:10:00,
2013-05-13 21:11:00,72.1,57.0,29.71,SSW,202,0.0,0.0,59,0.00,CLR,,0.00,WeatherDisplay:10.37,2013-05-14 01:11:00,
2013-05-13 21:12:00,72.1,57.0,29.71,SSW,202,0.0,0.0,59,0.00,CLR,,0.00,WeatherDisplay:10.37,2013-05-14 01:12:00,
2013-05-13 21:15:00,71.4,57.3,29.71,SSW,202,0.0,0.0,61,0.00,CLR,,0.00,WeatherDisplay:10.37,2013-05-14 01:15:00,
2013-05-13 21:17:00,71.2,56.6,29.72,SSW,202,0.0,0.0,60,0.00,CLR,,0.00,WeatherDisplay:10.37,2013-05-14 01:17:00,
2013-05-13 21:18:00,71.2,56.6,29.71,SSW,202,0.0,0.0,60,0.00,CLR,,0.00,WeatherDisplay:10.37,2013-05-14 01:18:00,
2013-05-13 21:20:00,70.9,56.3,29.71,SSW,202,0.0,0.0,60,0.00,CLR,,0.00,WeatherDisplay:10.37,2013-05-14 01:20:00,
2013-05-13 21:23:00,70.3,56.2,29.71,SSW,202,0.0,0.0,61,0.00,CLR,,0.00,WeatherDisplay:10.37,2013-05-14 01:23:00,
2013-05-13 21:24:00,70.3,56.2,29.71,SSW,202,0.0,0.0,61,0.00,CLR,,0.00,WeatherDisplay:10.37,2013-05-14 01:24:00,
2013-05-13 21:25:00,70.0,55.9,29.72,SSW,202,0.0,0.0,61,0.00,CLR,,0.00,WeatherDisplay:10.37,2013-05-14 01:25:00,
2013-05-13 21:26:00,70.0,55.9,29.72,SSW,202,0.0,0.0,61,0.00,CLR,,0.00,WeatherDisplay:10.37,2013-05-14 01:26:00,
2013-05-13 21:28:00,70.0,55.9,29.71,SSW,202,0.0,0.0,61,0.00,CLR,,0.00,WeatherDisplay:10.37,2013-05-14 01:28:00,
2013-05-13 21:29:00,70.0,55.9,29.71,SSW,202,0.0,0.0,61,0.00,CLR,,0.00,WeatherDisplay:10.37,2013-05-14 01:29:00,
2013-05-13 21:31:00,69.6,56.5,29.71,SSW,202,0.0,0.0,63,0.00,CLR,,0.00,WeatherDisplay:10.37,2013-05-14 01:31:00,
2013-05-13 21:32:00,69.4,56.3,29.71,SSW,202,0.0,0.0,63,0.00,CLR,,0.00,WeatherDisplay:10.37,2013-05-14 01:32:00,
2013-05-13 21:33:00,69.4,56.3,29.71,SSW,202,0.0,0.0,63,0.00,CLR,,0.00,WeatherDisplay:10.37,2013-05-14 01:33:00,
2013-05-13 21:35:00,69.1,56.0,29.71,SSW,202,0.0,0.0,63,0.00,CLR,,0.00,WeatherDisplay:10.37,2013-05-14 01:35:00,
2013-05-13 21:36:00,68.7,55.6,29.71,SSW,202,0.0,0.0,63,0.00,CLR,,0.00,WeatherDisplay:10.37,2013-05-14 01:36:00,
2013-05-13 21:37:00,68.7,55.6,29.71,SSW,202,0.0,0.0,63,0.00,CLR,,0.00,WeatherDisplay:10.37,2013-05-14 01:37:00,
2013-05-13 21:39:00,68.5,55.9,29.71,SSW,202,0.0,0.0,64,0.00,CLR,,0.00,WeatherDisplay:10.37,2013-05-14 01:39:00,
2013-05-13 21:40:00,68.4,55.7,29.71,SSW,202,0.0,0.0,64,0.00,CLR,,0.00,WeatherDisplay:10.37,2013-05-14 01:40:00,
2013-05-13 21:42:00,68.4,55.7,29.71,SSW,202,0.0,0.0,64,0.00,CLR,,0.00,WeatherDisplay:10.37,2013-05-14 01:42:00,
2013-05-13 21:44:00,68.0,55.4,29.72,SSW,202,0.0,0.0,64,0.00,CLR,,0.00,WeatherDisplay:10.37,2013-05-14 01:44:00,
2013-05-13 21:45:00,67.8,55.6,29.71,SSW,202,0.0,0.0,65,0.00,CLR,,0.00,WeatherDisplay:10.37,2013-05-14 01:45:00,
2013-05-13 21:47:00,67.6,55.5,29.71,SSW,202,0.0,0.0,65,0.00,CLR,,0.00,WeatherDisplay:10.37,2013-05-14 01:47:00,
2013-05-13 21:49:00,67.5,55.7,29.71,SSW,202,0.0,0.0,66,0.00,CLR,,0.00,WeatherDisplay:10.37,2013-05-14 01:49:00,
2013-05-13 21:50:00,67.3,55.5,29.72,SSW,202,0.0,0.0,66,0.00,CLR,,0.00,WeatherDisplay:10.37,2013-05-14 01:50:00,
2013-05-13 21:51:00,67.3,55.5,29.72,SSW,202,0.0,0.0,66,0.00,CLR,,0.00,WeatherDisplay:10.37,2013-05-14 01:51:00,
2013-05-13 21:52:00,67.3,55.5,29.72,SSW,202,0.0,0.0,66,0.00,CLR,,0.00,WeatherDisplay:10.37,2013-05-14 01:52:00,
2013-05-13 21:53:00,66.9,55.6,29.71,SSW,202,0.0,0.0,67,0.00,CLR,,0.00,WeatherDisplay:10.37,2013-05-14 01:53:00,
2013-05-13 21:56:00,66.7,55.4,29.71,SSW,202,0.0,0.0,67,0.00,CLR,,0.00,WeatherDisplay:10.37,2013-05-14 01:56:00,
2013-05-13 21:57:00,66.7,55.4,29.71,SSW,202,0.0,0.0,67,0.00,CLR,,0.00,WeatherDisplay:10.37,2013-05-14 01:57:00,
2013-05-13 21:58:00,66.6,55.3,29.71,SSW,202,0.0,0.0,67,0.00,CLR,,0.00,WeatherDisplay:10.37,2013-05-14 01:58:00,
2013-05-13 22:01:00,66.4,55.1,29.71,SSW,202,0.0,0.0,67,0.00,CLR,,0.00,WeatherDisplay:10.37,2013-05-14 02:01:00,
2013-05-13 22:02:00,66.0,55.2,29.71,SSW,202,0.0,0.0,68,0.00,CLR,,0.00,WeatherDisplay:10.37,2013-05-14 02:02:00,
2013-05-13 22:03:00,66.0,55.2,29.71,SSW,202,0.0,0.0,68,0.00,CLR,,0.00,WeatherDisplay:10.37,2013-05-14 02:03:00,
2013-05-13 22:05:00,65.8,55.4,29.71,SSW,202,0.0,0.0,69,0.00,CLR,,0.00,WeatherDisplay:10.37,2013-05-14 02:05:00,
2013-05-13 22:07:00,65.5,55.4,29.71,SSW,202,0.0,0.0,70,0.00,CLR,,0.00,WeatherDisplay:10.37,2013-05-14 02:07:00,
2013-05-13 22:08:00,65.5,55.4,29.71,SSW,202,0.0,0.0,70,0.00,CLR,,0.00,WeatherDisplay:10.37,2013-05-14 02:08:00,
2013-05-13 22:09:00,65.5,55.4,29.71,SSW,202,0.0,0.0,70,0.00,CLR,,0.00,WeatherDisplay:10.37,2013-05-14 02:09:00,
2013-05-13 22:10:00,65.5,55.4,29.71,SSW,202,0.0,0.0,70,0.00,CLR,,0.00,WeatherDisplay:10.37,2013-05-14 02:10:00,
2013-05-13 22:13:00,64.9,54.9,29.71,SSW,202,0.0,0.0,70,0.00,CLR,,0.00,WeatherDisplay:10.37,2013-05-14 02:13:00,
2013-05-13 22:14:00,64.9,54.9,29.71,SSW,202,0.0,0.0,70,0.00,CLR,,0.00,WeatherDisplay:10.37,2013-05-14 02:14:00,
2013-05-13 22:15:00,64.9,55.3,29.71,SSW,202,0.0,0.0,71,0.00,CLR,,0.00,WeatherDisplay:10.37,2013-05-14 02:15:00,
2013-05-13 22:16:00,64.9,55.3,29.71,SSW,202,0.0,0.0,71,0.00,CLR,,0.00,WeatherDisplay:10.37,2013-05-14 02:16:00,
2013-05-13 22:18:00,64.6,55.3,29.71,SSW,202,0.0,0.0,72,0.00,CLR,,0.00,WeatherDisplay:10.37,2013-05-14 02:18:00,
2013-05-13 22:19:00,64.6,55.3,29.71,SSW,202,0.0,0.0,72,0.00,CLR,,0.00,WeatherDisplay:10.37,2013-05-14 02:19:00,
2013-05-13 22:21:00,64.2,55.0,29.72,SSW,202,0.0,0.0,72,0.00,CLR,,0.00,WeatherDisplay:10.37,2013-05-14 02:21:00,
2013-05-13 22:22:00,64.2,55.0,29.72,SSW,202,0.0,0.0,72,0.00,CLR,,0.00,WeatherDisplay:10.37,2013-05-14 02:22:00,
2013-05-13 22:24:00,64.0,55.2,29.72,SSW,202,0.0,0.0,73,0.00,CLR,,0.00,WeatherDisplay:10.37,2013-05-14 02:24:00,
2013-05-13 22:25:00,64.0,55.2,29.72,SSW,202,0.0,0.0,73,0.00,CLR,,0.00,WeatherDisplay:10.37,2013-05-14 02:25:00,
2013-05-13 22:28:00,64.0,55.2,29.71,SSW,202,0.0,0.0,73,0.00,CLR,,0.00,WeatherDisplay:10.37,2013-05-14 02:28:00,
2013-05-13 22:30:00,63.9,55.0,29.72,SSW,202,0.0,0.0,73,0.00,CLR,,0.00,WeatherDisplay:10.37,2013-05-14 02:30:00,
2013-05-13 22:33:00,63.7,54.9,29.72,SSW,202,0.0,0.0,73,0.00,CLR,,0.00,WeatherDisplay:10.37,2013-05-14 02:33:00,
2013-05-13 22:35:00,63.5,54.7,29.72,SSW,202,0.0,0.0,73,0.00,CLR,,0.00,WeatherDisplay:10.37,2013-05-14 02:35:00,
2013-05-13 22:36:00,63.5,55.1,29.72,SSW,202,0.0,0.0,74,0.00,CLR,,0.00,WeatherDisplay:10.37,2013-05-14 02:36:00,
2013-05-13 22:38:00,63.5,55.1,29.72,SSW,202,0.0,0.0,74,0.00,CLR,,0.00,WeatherDisplay:10.37,2013-05-14 02:38:00,
2013-05-13 22:39:00,63.3,54.9,29.72,SSW,202,0.0,0.0,74,0.00,CLR,,0.00,WeatherDisplay:10.37,2013-05-14 02:39:00,
2013-05-13 22:41:00,63.1,54.7,29.72,SSW,202,0.0,0.0,74,0.00,CLR,,0.00,WeatherDisplay:10.37,2013-05-14 02:41:00,
2013-05-13 22:42:00,63.1,55.1,29.71,SSW,202,0.0,0.0,75,0.00,CLR,,0.00,WeatherDisplay:10.37,2013-05-14 02:42:00,
2013-05-13 22:43:00,63.1,55.1,29.71,SSW,202,0.0,0.0,75,0.00,CLR,,0.00,WeatherDisplay:10.37,2013-05-14 02:43:00,
2013-05-13 22:44:00,63.1,55.1,29.71,SSW,202,0.0,0.0,75,0.00,CLR,,0.00,WeatherDisplay:10.37,2013-05-14 02:44:00,
2013-05-13 22:47:00,63.0,54.9,29.72,SSW,202,0.0,0.0,75,0.00,CLR,,0.00,WeatherDisplay:10.37,2013-05-14 02:47:00,
2013-05-13 22:48:00,63.0,54.9,29.72,SSW,202,0.0,0.0,75,0.00,CLR,,0.00,WeatherDisplay:10.37,2013-05-14 02:48:00,
2013-05-13 22:50:00,62.8,54.7,29.71,SSW,202,0.0,0.0,75,0.00,CLR,,0.00,WeatherDisplay:10.37,2013-05-14 02:50:00,
2013-05-13 22:51:00,62.8,54.7,29.72,SSW,202,0.0,0.0,75,0.00,CLR,,0.00,WeatherDisplay:10.37,2013-05-14 02:51:00,
2013-05-13 22:53:00,62.8,54.7,29.71,SSW,202,0.0,0.0,75,0.00,CLR,,0.00,WeatherDisplay:10.37,2013-05-14 02:53:00,
2013-05-13 22:54:00,62.4,54.4,29.72,SSW,202,0.0,0.0,75,0.00,CLR,,0.00,WeatherDisplay:10.37,2013-05-14 02:54:00,
2013-05-13 22:55:00,62.4,54.4,29.72,SSW,202,0.0,0.0,75,0.00,CLR,,0.00,WeatherDisplay:10.37,2013-05-14 02:55:00,
2013-05-13 22:56:00,62.4,54.4,29.72,SSW,202,0.0,0.0,75,0.00,CLR,,0.00,WeatherDisplay:10.37,2013-05-14 02:56:00,
2013-05-13 22:58:00,62.2,54.6,29.72,SSW,202,0.0,0.0,76,0.00,CLR,,0.00,WeatherDisplay:10.37,2013-05-14 02:58:00,
2013-05-13 22:59:00,62.2,54.6,29.72,SSW,202,0.0,0.0,76,0.00,CLR,,0.00,WeatherDisplay:10.37,2013-05-14 02:59:00,
2013-05-13 23:00:00,62.2,54.6,29.72,SSW,202,0.0,0.0,76,0.00,CLR,,0.00,WeatherDisplay:10.37,2013-05-14 03:00:00,
2013-05-13 23:02:00,62.2,54.6,29.72,SSW,202,0.0,0.0,76,0.00,CLR,,0.00,WeatherDisplay:10.37,2013-05-14 03:02:00,
2013-05-13 23:04:00,62.2,54.6,29.71,SSW,202,0.0,0.0,76,0.00,CLR,,0.00,WeatherDisplay:10.37,2013-05-14 03:04:00,
2013-05-13 23:05:00,62.2,54.6,29.72,SSW,202,0.0,0.0,76,0.00,CLR,,0.00,WeatherDisplay:10.37,2013-05-14 03:05:00,
2013-05-13 23:08:00,61.9,54.2,29.72,SSW,202,0.0,0.0,76,0.00,CLR,,0.00,WeatherDisplay:10.37,2013-05-14 03:08:00,
2013-05-13 23:09:00,61.9,54.6,29.72,SSW,202,0.0,0.0,77,0.00,CLR,,0.00,WeatherDisplay:10.37,2013-05-14 03:09:00,
2013-05-13 23:10:00,61.9,54.6,29.72,SSW,202,0.0,0.0,77,0.00,CLR,,0.00,WeatherDisplay:10.37,2013-05-14 03:10:00,
2013-05-13 23:11:00,61.7,54.4,29.72,SSW,202,0.0,0.0,77,0.00,CLR,,0.00,WeatherDisplay:10.37,2013-05-14 03:11:00,
2013-05-13 23:13:00,61.7,54.4,29.72,SSW,202,0.0,0.0,77,0.00,CLR,,0.00,WeatherDisplay:10.37,2013-05-14 03:13:00,
2013-05-13 23:14:00,61.7,54.4,29.72,SSW,202,0.0,0.0,77,0.00,CLR,,0.00,WeatherDisplay:10.37,2013-05-14 03:14:00,
2013-05-13 23:16:00,61.5,54.2,29.72,SSW,202,0.0,0.0,77,0.00,CLR,,0.00,WeatherDisplay:10.37,2013-05-14 03:16:00,
2013-05-13 23:17:00,61.5,54.2,29.72,SSW,202,0.0,0.0,77,0.00,CLR,,0.00,WeatherDisplay:10.37,2013-05-14 03:17:00,
2013-05-13 23:18:00,61.5,54.2,29.72,SSW,202,0.0,0.0,77,0.00,CLR,,0.00,WeatherDisplay:10.37,2013-05-14 03:18:00,
2013-05-13 23:21:00,61.3,54.1,29.72,SSW,202,0.0,0.0,77,0.00,CLR,,0.00,WeatherDisplay:10.37,2013-05-14 03:21:00,
2013-05-13 23:22:00,61.3,54.4,29.72,SSW,202,0.0,0.0,78,0.00,CLR,,0.00,WeatherDisplay:10.37,2013-05-14 03:22:00,
2013-05-13 23:24:00,61.2,54.2,29.75,SSW,202,0.0,0.0,78,0.00,CLR,,0.00,WeatherDisplay:10.37,2013-05-14 03:24:00,
2013-05-13 23:27:00,61.0,54.1,29.72,SSW,202,0.0,0.0,78,0.00,CLR,,0.00,WeatherDisplay:10.37,2013-05-14 03:27:00,
2013-05-13 23:28:00,61.0,54.1,29.72,SSW,202,0.0,0.0,78,0.00,CLR,,0.00,WeatherDisplay:10.37,2013-05-14 03:28:00,
2013-05-13 23:32:00,60.6,53.7,29.75,SSW,202,0.0,0.0,78,0.00,CLR,,0.00,WeatherDisplay:10.37,2013-05-14 03:32:00,
2013-05-13 23:33:00,60.6,53.7,29.75,SSW,202,0.0,0.0,78,0.00,CLR,,0.00,WeatherDisplay:10.37,2013-05-14 03:33:00,
2013-05-13 23:34:00,60.6,53.7,29.75,SSW,202,0.0,0.0,78,0.00,CLR,,0.00,WeatherDisplay:10.37,2013-05-14 03:34:00,
2013-05-13 23:35:00,60.6,53.7,29.72,SSW,202,0.0,0.0,78,0.00,CLR,,0.00,WeatherDisplay:10.37,2013-05-14 03:35:00,
2013-05-13 23:37:00,60.6,54.1,29.75,SSW,202,0.0,0.0,79,0.00,CLR,,0.00,WeatherDisplay:10.37,2013-05-14 03:37:00,
2013-05-13 23:38:00,60.6,54.1,29.75,SSW,202,0.0,0.0,79,0.00,CLR,,0.00,WeatherDisplay:10.37,2013-05-14 03:38:00,
2013-05-13 23:39:00,60.4,53.9,29.75,SSW,202,0.0,0.0,79,0.00,CLR,,0.00,WeatherDisplay:10.37,2013-05-14 03:39:00,
2013-05-13 23:40:00,60.4,53.5,29.75,SSW,202,0.0,0.0,78,0.00,CLR,,0.00,WeatherDisplay:10.37,2013-05-14 03:40:00,
2013-05-13 23:41:00,60.4,53.5,29.75,SSW,202,0.0,0.0,78,0.00,CLR,,0.00,WeatherDisplay:10.37,2013-05-14 03:41:00,
2013-05-13 23:43:00,60.4,53.9,29.75,SSW,202,0.0,0.0,79,0.00,CLR,,0.00,WeatherDisplay:10.37,2013-05-14 03:43:00,
2013-05-13 23:45:00,60.4,53.9,29.73,SSW,202,0.0,0.0,79,0.00,CLR,,0.00,WeatherDisplay:10.37,2013-05-14 03:45:00,
2013-05-13 23:46:00,60.4,53.9,29.75,SSW,202,0.0,0.0,79,0.00,CLR,,0.00,WeatherDisplay:10.37,2013-05-14 03:46:00,
2013-05-13 23:47:00,60.4,53.9,29.75,SSW,202,0.0,0.0,79,0.00,CLR,,0.00,WeatherDisplay:10.37,2013-05-14 03:47:00,
2013-05-13 23:49:00,60.4,53.9,29.75,SSW,202,0.0,0.0,79,0.00,CLR,,0.00,WeatherDisplay:10.37,2013-05-14 03:49:00,
2013-05-13 23:50:00,60.3,53.7,29.75,SSW,202,0.0,0.0,79,0.00,CLR,,0.00,WeatherDisplay:10.37,2013-05-14 03:50:00,
2013-05-13 23:52:00,60.1,53.5,29.75,SSW,202,0.0,0.0,79,0.00,CLR,,0.00,WeatherDisplay:10.37,2013-05-14 03:52:00,
2013-05-13 23:53:00,60.1,53.5,29.75,SSW,202,0.0,0.0,79,0.00,CLR,,0.00,WeatherDisplay:10.37,2013-05-14 03:53:00,
2013-05-13 23:54:00,60.1,53.5,29.75,SSW,202,0.0,0.0,79,0.00,CLR,,0.00,WeatherDisplay:10.37,2013-05-14 03:54:00,
2013-05-13 23:55:00,60.1,53.5,29.75,SSW,202,0.0,0.0,79,0.00,CLR,,0.00,WeatherDisplay:10.37,2013-05-14 03:55:00,
2013-05-13 23:58:00,59.9,53.7,29.75,SSW,202,0.0,0.0,80,0.00,CLR,,0.00,WeatherDisplay:10.37,2013-05-14 03:58:00,
2013-05-13 23:59:00,59.9,53.7,29.75,SSW,202,0.0,0.0,80,0.00,CLR,,0.00,WeatherDisplay:10.37,2013-05-14 03:59:00,